GFSNW_prec_snow_252.txt.gz
Snowfall_Accumulation
0.0 0.0 0.0 0.0 0.0 0.0 0.0 0.0 10.2 0.0 0.0 5.3 6.8 7.0 2.1 0.0 0.0 0.0 0.0 0.0 0.0 0.0 0.0 0.0 0.0 0.0 0.0 0.0 0.0 0.0 0.0 0.6 1.2 0.5 0.0 0.0 0.0 0.0 0.0 3.4 1.3 2.9 4.0 2.8
0.0 0.0 0.0 0.0 0.0 0.0 0.0 0.0 1.7 0.0 0.0 7.3 5.1 0.0 0.0 0.0 0.0 0.0 0.0 0.0 0.0 0.0 0.0 0.0 0.0 0.0 0.0 0.0 0.0 0.0 0.0 1.2 1.0 1.5 0.4 0.0 0.8 0.1 0.1 1.4 2.4 3.0 3.9 0.6
0.0 0.0 0.0 0.0 0.0 0.0 0.0 0.0 7.7 0.0 0.0 0.0 0.0 0.0 0.4 0.0 0.0 0.0 0.0 0.0 0.0 0.0 0.0 0.0 0.0 0.0 0.0 0.0 0.0 0.0 0.0 1.6 1.0 1.0 2.4 3.5 3.2 0.3 0.7 2.8 6.3 0.7 0.6 0.3
0.0 0.0 0.0 0.0 0.0 0.0 0.0 0.0 2.0 0.0 6.9 1.0 0.0 0.0 0.0 0.0 0.0 0.0 0.0 0.0 0.0 0.0 0.0 0.0 0.0 0.0 0.0 0.0 0.0 0.0 0.0 2.3 0.5 1.0 1.6 5.6 3.1 0.9 0.9 3.6 0.7 2.2 0.1 0.3
0.0 0.0 0.0 0.0 0.0 0.0 0.0 0.0 0.0 0.0 0.0 0.0 0.0 0.0 0.0 0.0 0.0 0.0 0.0 0.0 0.0 0.0 0.0 0.0 0.0 0.0 0.0 0.0 0.0 0.0 0.0 3.6 3.2 3.3 1.9 3.4 2.6 0.4 0.7 0.5 0.1 0.0 0.0 0.0
0.0 0.0 0.0 0.0 0.0 0.0 0.0 0.0 0.0 0.0 0.0 0.0 0.0 0.0 0.0 0.1 0.0 0.0 0.0 0.0 0.0 0.0 0.0 0.0 0.0 0.0 0.0 0.0 0.0 0.0 1.7 4.5 6.4 4.9 0.6 1.4 1.8 0.6 0.2 0.0 0.0 0.0 0.3 0.0
0.0 0.0 0.0 0.0 0.0 0.0 0.0 0.0 0.0 0.0 0.4 0.0 0.0 0.0 0.0 0.0 0.0 0.1 0.0 0.0 0.0 0.0 0.0 0.0 0.0 0.0 0.0 0.0 0.0 0.0 0.0 4.0 7.5 8.6 4.0 4.3 0.0 0.0 0.0 0.0 0.1 0.2 0.1 0.0
0.0 0.0 0.0 0.0 0.0 0.0 0.0 0.0 0.0 0.0 0.9 0.0 0.0 0.0 0.0 0.0 0.0 0.0 0.0 0.0 0.0 0.0 0.0 0.0 0.0 0.0 0.0 0.0 0.0 0.0 0.0 0.9 4.2 4.4 2.8 0.0 0.0 0.0 0.0 0.0 0.2 0.0 0.0 0.0
0.0 0.0 0.0 0.0 0.0 0.0 0.0 0.0 0.0 0.0 0.7 0.2 0.0 0.0 0.0 0.3 0.3 0.3 0.0 0.0 0.0 0.0 0.0 0.0 1.2 0.0 0.0 0.0 0.0 0.0 0.0 0.0 1.9 1.4 2.7 0.7 0.0 0.0 0.0 0.0 0.4 0.0 0.0 0.0
0.0 0.0 0.0 0.0 0.0 0.0 0.0 0.0 0.0 0.0 2.0 0.5 0.0 0.2 0.3 0.0 0.3 0.3 0.0 0.0 0.0 0.0 0.1 1.3 1.2 0.1 0.0 0.0 0.0 0.1 0.4 0.4 1.8 1.3 2.4 0.0 0.0 0.0 0.0 0.1 0.2 0.0 0.0 0.0
0.0 0.0 0.0 0.0 0.0 0.0 0.0 0.0 0.0 0.0 2.1 0.1 0.0 0.0 0.1 0.2 0.0 0.7 0.2 0.0 0.0 0.1 1.1 0.8 0.1 0.5 0.1 0.0 0.0 0.0 0.0 0.2 0.4 1.3 2.5 0.3 0.0 0.0 0.1 0.0 0.0 0.0 0.0 0.0
0.0 0.0 0.0 0.0 0.0 0.0 0.0 0.0 0.0 0.0 0.3 1.5 0.0 0.0 0.0 0.0 0.0 0.0 0.1 0.0 0.1 0.0 1.3 1.5 0.6 0.8 0.4 0.1 0.3 0.0 0.0 0.0 0.2 0.1 0.2 0.0 0.0 0.0 0.0 0.0 0.0 0.0 0.0 0.0
0.0 0.0 0.0 0.0 0.0 0.0 0.0 0.0 0.0 0.0 4.3 2.2 1.4 0.4 0.0 0.0 0.0 0.0 0.5 0.1 0.0 0.0 0.1 0.7 1.4 1.9 0.4 0.6 0.1 0.0 0.0 0.0 0.1 0.0 0.0 0.0 0.0 0.0 0.0 0.0 0.0 0.0 0.0 0.0
0.0 0.0 0.0 0.0 0.0 0.0 0.0 0.0 0.0 0.0 2.0 5.7 0.6 0.0 0.0 0.0 0.0 0.0 0.0 0.0 0.0 0.0 0.8 3.0 3.9 2.4 0.6 0.3 0.1 0.0 0.0 0.0 0.0 0.0 0.0 0.0 0.0 0.0 0.0 0.0 0.0 0.0 0.0 0.0
0.0 0.0 0.0 0.0 0.0 0.0 0.0 0.0 0.0 0.0 1.1 6.3 2.2 0.7 0.3 0.0 0.0 0.0 0.0 0.0 0.0 0.8 2.8 4.4 3.9 1.3 1.3 1.0 0.7 0.1 0.0 0.0 0.0 0.0 0.0 0.0 0.0 0.0 0.0 0.0 0.0 0.0 0.0 0.0
0.0 0.0 0.0 0.0 0.0 0.0 0.0 3.5 0.0 0.0 0.0 5.1 10.3 0.5 0.3 0.0 0.0 0.0 0.0 0.0 0.1 2.3 2.0 4.1 1.0 0.1 1.0 2.9 0.4 0.0 0.0 0.0 0.0 0.0 0.0 0.0 0.0 0.0 0.0 0.0 0.0 0.0 0.0 0.0
0.0 0.0 0.0 0.0 0.0 0.0 0.6 3.6 0.0 0.0 0.0 7.5 22.8 9.8 1.2 0.6 0.8 1.6 1.9 1.6 1.5 5.5 5.5 2.3 2.5 2.0 3.6 3.3 0.5 0.0 0.0 0.0 0.0 0.0 0.0 0.0 0.0 0.0 0.0 0.0 0.0 0.0 0.0 0.0
0.0 0.0 0.0 0.0 0.0 0.0 0.2 0.0 0.0 0.0 4.4 8.1 27.6 16.1 8.5 0.1 1.0 2.1 0.7 0.6 1.2 7.9 3.3 0.8 1.4 1.2 4.6 4.7 0.0 0.0 0.0 0.0 0.0 0.0 0.0 0.0 0.0 0.0 0.0 0.0 0.0 0.0 0.0 0.0
0.0 0.0 0.0 0.0 0.0 0.2 0.0 0.0 0.0 0.0 1.5 27.3 16.1 11.6 8.9 2.6 0.7 2.1 2.4 0.7 6.7 1.2 3.7 0.1 0.5 2.7 6.1 0.4 0.1 0.1 0.0 0.0 0.0 0.0 0.0 0.0 0.0 0.0 0.0 0.0 0.0 0.0 0.0 0.0
0.0 0.0 3.1 12.9 2.4 0.0 0.0 0.0 5.4 18.4 23.2 18.5 12.1 5.5 5.6 4.2 7.4 5.1 6.6 8.8 8.5 10.8 2.9 0.0 6.1 0.9 0.4 0.1 0.5 0.2 0.1 0.0 0.0 4.2 2.9 1.0 1.6 0.3 0.3 0.0 0.1 0.0 0.1 0.1
2.8 13.8 16.4 3.3 0.0 1.5 1.6 35.1 35.5 26.8 22.0 9.1 7.3 4.1 6.3 2.5 9.2 8.5 8.2 14.1 11.4 12.3 4.8 3.4 4.8 5.3 1.4 0.0 0.3 0.0 0.1 0.2 0.0 0.0 0.5 1.8 3.7 3.9 2.0 0.6 3.2 1.5 2.4 2.9
3.5 2.8 4.6 4.8 26.7 35.8 37.2 32.0 13.3 6.8 5.3 8.3 6.2 2.5 2.8 6.0 4.3 10.3 13.7 12.8 11.4 8.6 3.3 9.1 5.8 3.4 1.5 1.9 0.6 0.3 0.1 0.0 0.1 0.2 2.2 0.9 1.0 1.5 2.0 2.8 3.2 2.9 3.1 2.8
5.2 19.3 32.7 30.3 31.3 34.6 24.8 12.4 7.9 7.2 5.2 6.1 4.0 4.7 5.3 7.4 11.3 18.5 15.5 14.4 8.5 5.0 9.2 5.1 3.1 0.9 0.0 0.5 1.7 1.6 1.6 0.3 1.3 2.0 0.0 0.7 0.6 0.4 0.8 1.2 0.1 0.5 0.9 1.4
16.8 31.3 30.0 20.5 17.5 9.6 6.6 3.6 3.0 2.8 4.2 5.1 5.1 6.1 8.9 7.1 14.0 13.3 15.5 8.0 5.5 11.9 8.1 4.3 2.0 1.6 0.9 0.3 0.5 0.9 1.1 1.4 1.9 4.2 4.4 2.8 1.9 0.9 0.7 1.5 1.9 2.0 1.8 1.6
35.9 27.3 18.0 10.0 5.2 3.2 3.6 3.0 3.3 4.0 6.8 9.4 10.3 10.0 9.6 12.5 17.0 11.5 6.1 10.7 9.7 7.8 5.4 4.3 3.7 3.5 3.3 3.1 2.6 1.8 2.0 2.6 3.4 3.2 4.3 5.3 3.0 1.9 1.4 2.2 2.2 2.2 2.3 1.6
32.0 23.1 9.5 3.2 2.0 2.9 2.0 2.6 3.5 4.0 5.7 7.8 12.5 13.1 14.1 12.5 11.2 11.3 7.1 7.7 6.1 6.0 6.3 6.2 5.3 5.0 4.5 5.0 4.7 4.3 4.3 4.7 5.3 5.7 6.7 6.2 6.4 6.9 6.5 4.5 3.7 3.3 3.7 2.7
31.6 9.6 4.1 3.4 2.2 2.2 2.7 3.1 3.7 4.9 6.1 8.0 10.4 14.8 9.3 9.5 11.0 6.9 5.0 6.5 6.7 6.2 4.6 4.1 4.3 4.0 4.4 4.6 4.2 4.2 4.5 4.5 5.0 6.1 7.3 8.4 9.1 8.6 7.0 7.0 8.4 7.5 7.1 6.4

GFSNW_prec_snow_255.txt.gz
Snowfall_Accumulation
0.0 0.0 0.0 0.0 0.0 0.0 0.0 0.0 10.2 0.0 0.0 5.3 6.8 7.0 2.1 0.0 0.0 0.0 0.0 0.0 0.0 0.0 0.0 0.0 0.0 0.0 0.0 0.0 0.0 0.0 0.0 0.6 1.2 0.5 0.0 0.0 0.0 0.0 0.0 3.4 1.3 2.9 4.0 2.8
0.0 0.0 0.0 0.0 0.0 0.0 0.0 0.0 1.7 0.0 0.0 7.3 5.1 0.0 0.0 0.0 0.0 0.0 0.0 0.0 0.0 0.0 0.0 0.0 0.0 0.0 0.0 0.0 0.0 0.0 0.0 1.2 1.0 1.5 0.4 0.0 0.8 0.1 0.1 1.4 2.4 3.0 3.9 0.6
0.0 0.0 0.0 0.0 0.0 0.0 0.0 0.0 7.7 0.0 0.0 0.0 0.0 0.0 0.4 0.0 0.0 0.0 0.0 0.0 0.0 0.0 0.0 0.0 0.0 0.0 0.0 0.0 0.0 0.0 0.0 1.6 1.0 1.0 2.4 3.5 3.2 0.3 0.7 2.8 6.3 0.7 0.6 0.3
0.0 0.0 0.0 0.0 0.0 0.0 0.0 0.0 2.0 0.0 6.9 1.0 0.0 0.0 0.0 0.0 0.0 0.0 0.0 0.0 0.0 0.0 0.0 0.0 0.0 0.0 0.0 0.0 0.0 0.0 0.0 2.3 0.5 1.0 1.6 5.6 3.1 0.9 0.9 3.6 0.7 2.2 0.1 0.3
0.0 0.0 0.0 0.0 0.0 0.0 0.0 0.0 0.0 0.0 0.0 0.0 0.0 0.0 0.0 0.0 0.0 0.0 0.0 0.0 0.0 0.0 0.0 0.0 0.0 0.0 0.0 0.0 0.0 0.0 0.0 3.6 3.2 3.3 1.9 3.4 2.6 0.4 0.7 0.5 0.1 0.0 0.0 0.0
0.0 0.0 0.0 0.0 0.0 0.0 0.0 0.0 0.0 0.0 0.0 0.0 0.0 0.0 0.0 0.1 0.0 0.0 0.0 0.0 0.0 0.0 0.0 0.0 0.0 0.0 0.0 0.0 0.0 0.0 1.7 4.5 6.4 4.9 0.6 1.4 1.8 0.6 0.2 0.0 0.0 0.0 0.3 0.0
0.0 0.0 0.0 0.0 0.0 0.0 0.0 0.0 0.0 0.0 0.4 0.0 0.0 0.0 0.0 0.0 0.0 0.1 0.0 0.0 0.0 0.0 0.0 0.0 0.0 0.0 0.0 0.0 0.0 0.0 0.0 4.0 7.5 8.7 4.0 4.3 0.0 0.0 0.0 0.0 0.1 0.2 0.1 0.0
0.0 0.0 0.0 0.0 0.0 0.0 0.0 0.0 0.0 0.0 0.9 0.0 0.0 0.0 0.0 0.0 0.0 0.0 0.0 0.0 0.0 0.0 0.0 0.0 0.0 0.0 0.0 0.0 0.0 0.0 0.0 0.9 4.3 4.5 2.8 0.0 0.0 0.0 0.0 0.0 0.2 0.0 0.0 0.0
0.0 0.0 0.0 0.0 0.0 0.0 0.0 0.0 0.0 0.0 0.7 0.2 0.0 0.0 0.0 0.3 0.3 0.3 0.0 0.0 0.0 0.0 0.0 0.0 1.2 0.0 0.0 0.0 0.0 0.0 0.0 0.0 2.1 1.4 2.8 0.7 0.0 0.0 0.0 0.0 0.4 0.0 0.0 0.0
0.0 0.0 0.0 0.0 0.0 0.0 0.0 0.0 0.0 0.0 2.0 0.5 0.0 0.2 0.3 0.0 0.3 0.3 0.0 0.0 0.0 0.0 0.1 1.3 1.2 0.1 0.0 0.0 0.0 0.1 0.4 0.4 2.0 1.3 2.7 0.0 0.0 0.0 0.0 0.1 0.2 0.0 0.0 0.0
0.0 0.0 0.0 0.0 0.0 0.0 0.0 0.0 0.0 0.0 2.1 0.1 0.0 0.0 0.1 0.2 0.0 0.7 0.2 0.0 0.0 0.1 1.1 0.8 0.1 0.5 0.1 0.0 0.0 0.0 0.0 0.3 0.4 1.3 2.7 0.4 0.0 0.0 0.1 0.0 0.0 0.0 0.0 0.0
0.0 0.0 0.0 0.0 0.0 0.0 0.0 0.0 0.0 0.0 0.3 1.5 0.0 0.0 0.0 0.0 0.0 0.0 0.1 0.0 0.1 0.0 1.3 1.5 0.6 0.8 0.6 0.1 0.4 0.0 0.0 0.0 0.2 0.1 0.2 0.0 0.0 0.0 0.0 0.0 0.0 0.0 0.0 0.0
0.0 0.0 0.0 0.0 0.0 0.0 0.0 0.0 0.0 0.0 4.3 2.2 1.4 0.4 0.0 0.0 0.0 0.0 0.5 0.1 0.0 0.0 0.1 0.7 1.4 1.9 0.5 0.6 0.1 0.0 0.0 0.0 0.1 0.0 0.0 0.0 0.0 0.0 0.0 0.0 0.0 0.0 0.0 0.0
0.0 0.0 0.0 0.0 0.0 0.0 0.0 0.0 0.0 0.0 2.0 5.7 0.6 0.0 0.0 0.0 0.0 0.0 0.0 0.0 0.0 0.0 0.8 3.0 3.9 2.4 0.6 0.5 0.1 0.0 0.0 0.0 0.0 0.0 0.0 0.0 0.0 0.0 0.0 0.0 0.0 0.0 0.0 0.0
0.0 0.0 0.0 0.0 0.0 0.0 0.0 0.0 0.0 0.0 1.1 6.3 2.2 0.7 0.3 0.0 0.0 0.0 0.0 0.0 0.0 0.8 2.8 4.4 4.3 1.5 1.6 1.3 0.9 0.2 0.0 0.0 0.0 0.0 0.0 0.0 0.0 0.0 0.0 0.0 0.0 0.0 0.0 0.0
0.0 0.0 0.0 0.0 0.0 0.0 0.0 3.5 0.0 0.0 0.0 5.1 10.3 0.5 0.3 0.0 0.0 0.0 0.0 0.0 0.1 2.3 2.0 4.4 1.2 0.1 1.0 3.6 0.6 0.0 0.0 0.0 0.0 0.0 0.0 0.0 0.0 0.0 0.0 0.0 0.0 0.0 0.0 0.0
0.0 0.0 0.0 0.0 0.0 0.0 0.6 3.6 0.0 0.0 0.0 7.5 22.8 12.1 2.0 1.2 1.3 2.2 2.7 2.3 2.1 6.1 6.1 2.7 2.7 2.1 4.3 3.8 0.5 0.0 0.0 0.0 0.0 0.0 0.0 0.0 0.0 0.0 0.0 0.0 0.0 0.0 0.0 0.0
0.0 0.0 0.0 0.0 0.0 0.0 0.2 0.0 0.0 0.0 4.4 8.1 31.5 19.0 9.2 0.5 1.4 2.6 1.4 1.4 2.1 8.8 3.8 1.0 1.5 1.4 5.0 4.8 0.0 0.0 0.0 0.0 0.0 0.0 0.0 0.0 0.0 0.0 0.0 0.0 0.0 0.0 0.0 0.0
0.0 0.0 0.0 0.0 0.0 0.2 0.0 0.0 0.0 0.0 1.5 30.2 18.9 13.0 9.2 2.6 0.9 2.3 2.9 1.5 7.6 1.8 4.0 0.2 0.5 2.8 6.2 0.4 0.1 0.1 0.0 0.0 0.0 0.0 0.0 0.0 0.0 0.0 0.0 0.0 0.0 0.0 0.0 0.0
0.0 0.0 3.1 13.7 3.8 0.0 0.0 0.0 5.4 18.4 25.4 20.4 13.2 6.0 5.9 4.3 7.6 5.7 7.5 9.6 9.0 11.0 2.9 0.0 6.2 0.9 0.4 0.1 0.5 0.2 0.1 0.0 0.0 4.2 2.9 1.0 1.6 0.3 0.3 0.0 0.1 0.0 0.1 0.1
2.8 13.8 16.4 3.3 0.0 1.5 3.2 36.8 37.2 28.5 23.5 10.1 7.8 4.4 6.6 2.8 9.9 9.5 9.2 14.6 11.5 12.4 4.8 3.4 4.8 5.3 1.4 0.0 0.3 0.0 0.1 0.2 0.0 0.0 0.5 1.8 3.7 3.9 2.0 0.6 3.2 1.5 2.4 2.9
3.5 2.8 4.6 4.8 27.1 36.5 38.1 33.0 14.3 7.7 6.2 8.9 6.6 3.1 3.4 6.9 5.2 11.3 14.4 13.0 11.7 8.7 3.3 9.1 5.8 3.4 1.5 1.9 0.6 0.3 0.1 0.0 0.1 0.2 2.2 0.9 1.0 1.5 2.0 2.8 3.2 2.9 3.1 2.8
5.2 20.8 33.1 30.3 31.3 34.8 25.1 12.7 8.3 7.6 5.7 6.6 4.4 5.2 5.8 7.9 12.0 19.2 15.9 14.8 8.8 5.0 9.2 5.1 3.1 0.9 0.0 0.5 1.7 1.6 1.6 0.3 1.3 2.0 0.0 0.7 0.6 0.4 0.8 1.2 0.1 0.5 0.9 1.4
18.5 32.3 30.3 20.6 17.5 9.7 6.6 3.6 3.1 3.1 4.5 5.2 5.1 6.2 9.2 7.5 14.4 13.6 15.7 8.3 5.5 12.0 8.1 4.3 2.0 1.6 0.9 0.3 0.5 0.9 1.1 1.4 1.9 4.2 4.4 2.8 1.9 0.9 0.7 1.5 1.9 2.0 1.8 1.6
36.6 27.8 18.2 10.0 5.2 3.3 3.6 3.0 3.3 4.1 6.8 9.4 10.3 10.1 9.7 12.7 17.2 11.8 6.3 10.8 9.8 7.8 5.4 4.3 3.7 3.5 3.3 3.1 2.6 1.8 2.0 2.6 3.4 3.2 4.3 5.3 3.0 1.9 1.4 2.2 2.2 2.2 2.3 1.6
32.5 23.1 9.5 3.2 2.0 2.9 2.0 2.6 3.5 4.0 5.7 7.8 12.5 13.1 14.3 12.6 11.2 11.3 7.1 7.7 6.1 6.0 6.3 6.2 5.3 5.0 4.5 5.0 4.7 4.3 4.3 4.7 5.3 5.7 6.7 6.2 6.4 6.9 6.5 4.5 3.7 3.3 3.7 2.7
32.0 9.7 4.1 3.4 2.2 2.2 2.7 3.1 3.7 4.9 6.1 8.0 10.4 14.8 9.3 9.6 11.0 6.9 5.0 6.5 6.7 6.2 4.6 4.1 4.3 4.0 4.4 4.6 4.2 4.2 4.5 4.5 5.0 6.1 7.3 8.4 9.1 8.6 7.0 7.0 8.4 7.5 7.1 6.4

GFSNW_prec_snow_261.txt.gz
Snowfall_Accumulation
0.0 0.0 0.0 0.0 0.0 0.0 0.0 0.0 10.2 0.0 0.0 5.3 6.8 7.0 2.1 0.0 0.0 0.0 0.0 0.0 0.0 0.0 0.0 0.0 0.0 0.0 0.0 0.0 0.0 0.0 0.0 0.6 1.2 0.5 0.0 0.0 0.0 0.0 0.0 3.4 1.3 2.9 4.0 2.8
0.0 0.0 0.0 0.0 0.0 0.0 0.0 0.0 1.7 0.0 0.0 7.3 5.1 0.0 0.0 0.0 0.0 0.0 0.0 0.0 0.0 0.0 0.0 0.0 0.0 0.0 0.0 0.0 0.0 0.0 0.0 1.2 1.0 1.5 0.4 0.0 0.8 0.1 0.1 1.4 2.4 3.0 3.9 0.6
0.0 0.0 0.0 0.0 0.0 0.0 0.0 0.0 7.7 0.0 0.0 0.0 0.0 0.0 0.4 0.0 0.0 0.0 0.0 0.0 0.0 0.0 0.0 0.0 0.0 0.0 0.0 0.0 0.0 0.0 0.0 1.6 1.0 1.0 2.4 3.5 3.2 0.3 0.7 2.8 6.3 0.7 0.6 0.3
0.0 0.0 0.0 0.0 0.0 0.0 0.0 0.0 2.0 0.0 6.9 1.0 0.0 0.0 0.0 0.0 0.0 0.0 0.0 0.0 0.0 0.0 0.0 0.0 0.0 0.0 0.0 0.0 0.0 0.0 0.0 2.3 0.5 1.0 1.6 5.6 3.1 0.9 0.9 3.6 0.7 2.2 0.1 0.3
0.0 0.0 0.0 0.0 0.0 0.0 0.0 0.0 0.0 0.0 0.0 0.0 0.0 0.0 0.0 0.0 0.0 0.0 0.0 0.0 0.0 0.0 0.0 0.0 0.0 0.0 0.0 0.0 0.0 0.0 0.0 3.6 3.2 3.3 1.9 3.4 2.6 0.4 0.7 0.5 0.1 0.0 0.0 0.0
0.0 0.0 0.0 0.0 0.0 0.0 0.0 0.0 0.0 0.0 0.0 0.0 0.0 0.0 0.0 0.1 0.0 0.0 0.0 0.0 0.0 0.0 0.0 0.0 0.0 0.0 0.0 0.0 0.0 0.0 1.7 4.5 6.4 4.9 0.6 1.4 1.8 0.6 0.2 0.0 0.0 0.0 0.3 0.0
0.0 0.0 0.0 0.0 0.0 0.0 0.0 0.0 0.0 0.0 0.4 0.0 0.0 0.0 0.0 0.0 0.0 0.1 0.0 0.0 0.0 0.0 0.0 0.0 0.0 0.0 0.0 0.0 0.0 0.0 0.0 4.0 7.5 8.7 4.0 4.3 0.0 0.0 0.0 0.0 0.1 0.2 0.1 0.0
0.0 0.0 0.0 0.0 0.0 0.0 0.0 0.0 0.0 0.0 0.9 0.0 0.0 0.0 0.0 0.0 0.0 0.0 0.0 0.0 0.0 0.0 0.0 0.0 0.0 0.0 0.0 0.0 0.0 0.0 0.0 0.9 4.3 4.6 2.8 0.0 0.0 0.0 0.0 0.0 0.2 0.0 0.0 0.0
0.0 0.0 0.0 0.0 0.0 0.0 0.0 0.0 0.0 0.0 0.7 0.2 0.0 0.0 0.0 0.3 0.3 0.3 0.0 0.0 0.0 0.0 0.0 0.0 1.2 0.0 0.0 0.0 0.0 0.0 0.0 0.0 2.4 1.7 2.9 0.7 0.0 0.0 0.0 0.0 0.4 0.0 0.0 0.0
0.0 0.0 0.0 0.0 0.0 0.0 0.0 0.0 0.0 0.0 2.0 0.5 0.0 0.2 0.3 0.0 0.3 0.3 0.0 0.0 0.0 0.0 0.1 1.3 1.2 0.1 0.0 0.0 0.0 0.1 0.4 0.6 2.3 1.4 3.1 0.0 0.0 0.0 0.0 0.1 0.2 0.0 0.0 0.0
0.0 0.0 0.0 0.0 0.0 0.0 0.0 0.0 0.0 0.0 2.1 0.1 0.0 0.0 0.1 0.2 0.0 0.7 0.2 0.0 0.0 0.1 1.1 0.8 0.1 0.5 0.1 0.0 0.0 0.0 0.0 0.4 0.4 1.4 3.1 0.5 0.0 0.0 0.1 0.0 0.0 0.0 0.0 0.0
0.0 0.0 0.0 0.0 0.0 0.0 0.0 0.0 0.0 0.0 0.3 1.5 0.0 0.0 0.0 0.0 0.0 0.0 0.1 0.0 0.1 0.0 1.3 1.5 0.6 0.8 0.6 0.1 0.4 0.0 0.0 0.0 0.2 0.1 0.2 0.0 0.0 0.0 0.0 0.0 0.0 0.0 0.0 0.0
0.0 0.0 0.0 0.0 0.0 0.0 0.0 0.0 0.0 0.0 4.3 2.2 1.4 0.4 0.0 0.0 0.0 0.0 0.5 0.1 0.0 0.0 0.1 0.7 1.4 1.9 0.5 0.6 0.1 0.0 0.0 0.0 0.1 0.0 0.0 0.0 0.0 0.0 0.0 0.0 0.0 0.0 0.0 0.0
0.0 0.0 0.0 0.0 0.0 0.0 0.0 0.0 0.0 0.0 2.0 5.7 0.6 0.0 0.0 0.0 0.0 0.0 0.0 0.0 0.0 0.0 0.8 3.0 3.9 2.4 0.6 0.5 0.1 0.0 0.0 0.0 0.0 0.0 0.0 0.0 0.0 0.0 0.0 0.0 0.0 0.0 0.0 0.0
0.0 0.0 0.0 0.0 0.0 0.0 0.0 0.0 0.0 0.0 1.1 6.3 2.2 0.7 0.3 0.0 0.0 0.0 0.0 0.0 0.0 0.8 2.8 4.4 4.3 1.5 1.6 1.7 1.4 0.4 0.0 0.0 0.1 0.1 0.0 0.0 0.0 0.0 0.0 0.0 0.0 0.0 0.0 0.0
0.0 0.0 0.0 0.0 0.0 0.0 0.0 3.5 0.0 0.0 0.0 5.1 10.3 0.5 0.3 0.0 0.0 0.0 0.0 0.0 0.1 2.3 2.0 4.4 1.2 0.1 1.0 4.7 1.7 0.0 0.0 0.0 0.0 0.0 0.0 0.0 0.0 0.0 0.0 0.0 0.0 0.0 0.0 0.0
0.0 0.0 0.0 0.0 0.0 0.0 0.6 3.6 0.0 0.0 0.0 7.5 22.8 15.4 3.0 1.2 1.3 2.2 2.7 2.3 2.1 6.1 7.6 4.0 3.4 3.2 4.3 6.4 1.4 0.0 0.0 0.0 0.0 0.0 0.0 0.0 0.0 0.0 0.0 0.0 0.0 0.0 0.0 0.0
0.0 0.0 0.0 0.0 0.0 0.0 0.2 0.0 0.0 0.0 4.4 8.1 43.4 26.3 11.2 1.3 2.0 3.7 3.4 4.2 5.6 13.1 8.4 4.6 3.3 3.1 7.4 6.4 0.2 0.0 0.0 0.0 0.1 0.0 0.0 0.0 0.0 0.0 0.0 0.0 0.0 0.0 0.0 0.0
0.0 0.0 0.0 0.0 0.0 0.2 0.0 0.0 0.0 0.0 1.5 42.3 30.0 19.6 11.6 3.4 1.4 3.0 4.5 4.2 11.4 5.9 7.4 2.3 1.9 4.3 7.3 0.9 0.2 0.2 0.2 0.4 0.1 0.0 0.0 0.0 0.0 0.0 0.0 0.0 0.0 0.0 0.0 0.0
0.0 0.0 3.1 15.1 4.3 0.0 0.0 0.0 9.7 23.9 33.5 29.2 20.3 10.2 7.9 5.4 8.6 7.5 10.3 13.0 12.3 14.1 4.7 1.1 7.4 1.5 0.5 0.2 1.0 0.8 0.5 0.1 0.0 4.2 2.9 1.0 1.6 0.3 0.3 0.0 0.1 0.0 0.1 0.1
2.8 16.2 17.7 3.3 0.0 1.5 6.8 40.4 41.0 32.6 27.2 13.4 10.1 6.3 7.8 4.2 11.8 12.1 12.6 17.8 14.1 14.3 5.7 4.0 5.4 5.4 1.4 0.3 0.7 0.2 0.1 0.2 0.0 0.0 0.5 1.8 3.7 3.9 2.0 0.6 3.2 1.5 2.4 2.9
3.5 2.8 4.6 5.7 29.2 39.0 40.9 35.9 16.8 9.9 8.0 10.3 7.5 4.3 5.0 8.8 7.4 14.0 17.2 15.2 13.5 10.0 3.5 9.4 6.0 3.4 1.6 2.0 0.6 0.3 0.1 0.0 0.1 0.2 2.2 0.9 1.0 1.5 2.0 2.8 3.2 2.9 3.1 2.8
5.2 23.7 34.9 31.3 32.4 36.4 26.9 14.3 9.5 8.7 6.6 7.3 5.2 6.6 7.7 10.2 14.2 21.4 18.0 16.6 10.1 5.4 9.3 5.2 3.1 0.9 0.1 0.5 1.7 1.6 1.6 0.3 1.3 2.0 0.0 0.7 0.6 0.4 0.8 1.2 0.1 0.5 0.9 1.4
21.9 34.2 31.3 21.1 17.9 10.2 7.3 4.4 3.9 4.4 6.1 6.6 6.4 7.6 10.6 9.0 15.9 15.2 16.8 9.4 6.2 12.4 8.3 4.4 2.0 1.6 0.9 0.3 0.5 0.9 1.1 1.4 1.9 4.2 4.4 2.8 1.9 0.9 0.7 1.5 1.9 2.0 1.8 1.6
38.6 29.0 18.8 10.2 5.3 3.6 4.3 4.1 4.6 5.6 8.3 10.5 11.3 11.0 10.6 13.9 18.2 12.3 6.8 11.5 10.3 8.0 5.4 4.3 3.7 3.5 3.3 3.1 2.6 1.8 2.0 2.6 3.4 3.2 4.3 5.3 3.0 1.9 1.4 2.2 2.2 2.2 2.3 1.6
33.8 23.8 9.6 3.4 2.1 3.1 2.3 3.1 3.9 4.3 6.2 8.0 12.5 13.2 14.4 12.9 11.4 11.4 7.3 7.9 6.2 6.0 6.3 6.2 5.3 5.0 4.5 5.0 4.7 4.3 4.3 4.7 5.3 5.7 6.7 6.2 6.4 6.9 6.5 4.5 3.7 3.3 3.7 2.7
32.7 10.5 4.4 3.7 2.4 2.3 2.7 3.2 3.8 4.9 6.1 8.0 10.4 14.8 9.3 9.6 11.0 6.9 5.0 6.5 6.7 6.2 4.6 4.1 4.3 4.0 4.4 4.6 4.2 4.2 4.5 4.5 5.0 6.1 7.3 8.4 9.1 8.6 7.0 7.0 8.4 7.5 7.1 6.4

GFSNW_prec_snow_267.txt.gz
Snowfall_Accumulation
0.0 0.0 0.0 0.0 0.0 0.0 0.0 0.0 10.2 0.0 0.0 5.3 6.8 7.0 2.1 0.0 0.0 0.0 0.0 0.0 0.0 0.0 0.0 0.0 0.0 0.0 0.0 0.0 0.0 0.0 0.0 0.6 1.2 0.5 0.0 0.0 0.0 0.0 0.0 3.4 1.3 2.9 4.0 2.8
0.0 0.0 0.0 0.0 0.0 0.0 0.0 0.0 1.7 0.0 0.0 7.3 5.1 0.0 0.0 0.0 0.0 0.0 0.0 0.0 0.0 0.0 0.0 0.0 0.0 0.0 0.0 0.0 0.0 0.0 0.0 1.2 1.0 1.5 0.4 0.0 0.8 0.1 0.1 1.4 2.4 3.0 3.9 0.6
0.0 0.0 0.0 0.0 0.0 0.0 0.0 0.0 7.7 0.0 0.0 0.0 0.0 0.0 0.4 0.0 0.0 0.0 0.0 0.0 0.0 0.0 0.0 0.0 0.0 0.0 0.0 0.0 0.0 0.0 0.0 1.6 1.0 1.0 2.4 3.5 3.2 0.3 0.7 2.8 6.3 0.7 0.6 0.3
0.0 0.0 0.0 0.0 0.0 0.0 0.0 0.0 2.0 0.0 6.9 1.0 0.0 0.0 0.0 0.0 0.0 0.0 0.0 0.0 0.0 0.0 0.0 0.0 0.0 0.0 0.0 0.0 0.0 0.0 0.0 2.3 0.5 1.0 1.6 5.6 3.1 0.9 0.9 3.6 0.7 2.2 0.1 0.3
0.0 0.0 0.0 0.0 0.0 0.0 0.0 0.0 0.0 0.0 0.0 0.0 0.0 0.0 0.0 0.0 0.0 0.0 0.0 0.0 0.0 0.0 0.0 0.0 0.0 0.0 0.0 0.0 0.0 0.0 0.0 3.6 3.2 3.3 1.9 3.4 2.6 0.4 0.7 0.5 0.1 0.0 0.0 0.0
0.0 0.0 0.0 0.0 0.0 0.0 0.0 0.0 0.0 0.0 0.0 0.0 0.0 0.0 0.0 0.1 0.0 0.0 0.0 0.0 0.0 0.0 0.0 0.0 0.0 0.0 0.0 0.0 0.0 0.0 1.7 4.5 6.4 4.9 0.6 1.4 1.8 0.6 0.2 0.0 0.0 0.0 0.3 0.0
0.0 0.0 0.0 0.0 0.0 0.0 0.0 0.0 0.0 3.8 2.0 0.0 0.0 0.0 0.0 0.0 0.0 0.1 0.0 0.0 0.0 0.0 0.0 0.0 0.0 0.0 0.0 0.0 0.0 0.0 0.0 4.0 7.5 8.7 4.0 4.3 0.0 0.0 0.0 0.0 0.1 0.2 0.1 0.0
0.0 0.0 0.0 0.0 0.0 0.0 0.0 0.0 0.0 4.3 3.4 0.0 0.0 0.0 0.0 0.0 0.0 0.0 0.0 0.0 0.0 0.0 0.0 0.0 0.0 0.0 0.0 0.0 0.0 0.0 0.0 0.9 4.3 4.6 2.8 0.0 0.0 0.0 0.0 0.0 0.2 0.0 0.0 0.0
0.0 0.0 0.0 0.0 0.0 0.0 0.0 0.0 0.0 5.3 4.3 1.1 0.0 0.0 0.0 0.3 0.3 0.3 0.0 0.0 0.0 0.0 0.0 0.0 1.2 0.0 0.0 0.0 0.0 0.0 0.0 0.0 2.4 1.8 3.0 0.7 0.0 0.0 0.0 0.0 0.4 0.0 0.0 0.0
0.0 0.0 0.0 0.0 0.0 0.0 0.0 0.0 0.0 0.0 6.5 0.5 0.0 0.5 0.3 0.0 0.3 0.3 0.0 0.0 0.0 0.0 0.1 1.3 1.2 0.1 0.0 0.0 0.0 0.1 0.4 0.6 2.3 1.4 3.2 0.0 0.0 0.0 0.0 0.1 0.2 0.0 0.0 0.0
0.0 0.0 0.0 0.0 0.0 0.0 0.0 0.0 0.0 0.0 7.0 0.1 0.0 0.0 0.1 0.2 0.0 0.7 0.2 0.0 0.0 0.1 1.1 0.8 0.1 0.5 0.1 0.0 0.0 0.0 0.0 0.4 0.4 1.5 3.3 0.5 0.0 0.0 0.1 0.0 0.0 0.0 0.0 0.0
0.0 0.0 0.0 0.0 0.0 0.0 0.0 0.0 0.0 0.0 0.3 1.5 0.0 0.0 0.0 0.0 0.0 0.0 0.1 0.0 0.1 0.0 1.3 1.5 0.6 0.8 0.6 0.1 0.4 0.0 0.0 0.0 0.2 0.1 0.2 0.0 0.0 0.0 0.0 0.0 0.0 0.0 0.0 0.0
0.0 0.0 0.0 0.0 0.0 0.0 0.0 0.0 0.0 0.0 4.3 2.2 1.4 0.4 0.0 0.0 0.0 0.0 0.5 0.1 0.0 0.0 0.1 0.7 1.4 1.9 0.5 0.6 0.1 0.0 0.0 0.0 0.1 0.0 0.0 0.0 0.0 0.0 0.0 0.0 0.0 0.0 0.0 0.0
0.0 0.0 0.0 0.0 0.0 0.0 0.0 0.0 0.0 0.0 2.0 11.9 1.5 0.0 0.0 0.0 0.0 0.0 0.0 0.0 0.0 0.0 0.8 3.0 3.9 2.4 0.6 0.5 0.1 0.0 0.0 0.0 0.0 0.0 0.0 0.0 0.0 0.0 0.0 0.0 0.0 0.0 0.0 0.0
0.0 0.0 0.0 0.0 0.0 0.0 0.0 0.0 0.0 0.0 1.1 12.5 4.6 0.7 0.3 0.0 0.0 0.0 0.0 0.0 0.0 0.8 2.8 4.4 4.3 1.5 1.6 1.7 1.4 0.4 0.0 0.0 0.1 0.1 0.0 0.0 0.0 0.0 0.0 0.0 0.2 0.1 0.0 0.0
0.0 0.0 0.0 0.0 0.0 0.0 0.0 3.5 0.0 0.0 0.0 5.1 13.5 0.5 0.3 0.0 0.0 0.0 0.0 0.0 0.1 2.3 2.0 4.4 1.2 0.1 1.0 4.7 1.7 0.0 0.0 0.0 0.0 0.0 0.0 0.0 0.0 0.1 0.0 0.9 0.3 0.1 0.0 0.0
0.0 0.0 0.0 0.0 0.0 0.0 0.6 5.7 0.0 0.0 0.0 12.2 28.8 17.3 3.4 1.2 1.3 2.2 2.7 2.3 2.1 6.1 7.6 4.0 3.4 3.2 4.3 6.4 1.4 0.0 0.0 0.0 0.0 0.0 0.0 1.1 0.3 0.0 1.1 0.5 0.2 0.1 0.0 0.0
0.0 0.0 0.0 0.0 0.0 0.0 0.2 0.0 0.0 0.0 4.4 12.1 51.5 30.1 12.2 1.8 2.8 5.5 5.2 5.4 5.6 13.1 8.4 4.6 3.3 3.1 8.9 8.2 1.1 0.1 0.1 0.7 1.6 1.8 1.2 2.4 2.1 1.3 0.7 0.3 0.1 0.0 0.0 0.0
0.0 0.0 0.0 0.0 0.0 0.2 0.0 0.0 0.0 0.0 1.5 50.8 36.4 22.1 12.4 4.5 2.1 4.0 6.7 6.8 14.6 9.2 9.8 2.3 1.9 6.1 9.2 2.4 0.9 0.6 1.3 2.3 2.0 3.1 2.6 2.0 1.2 0.7 0.4 0.1 0.0 0.0 0.0 0.0
0.0 0.0 3.1 17.0 4.3 0.0 0.0 0.0 12.9 27.5 37.9 34.3 23.7 12.6 9.4 6.7 9.2 8.4 12.5 17.1 17.3 18.6 7.6 3.1 9.7 3.6 1.4 1.2 3.1 3.2 3.2 3.0 2.5 6.1 4.3 2.0 2.3 0.7 0.5 0.0 0.1 0.0 0.1 0.1
2.8 18.7 19.3 3.3 0.0 1.5 9.5 43.3 44.1 35.6 29.9 15.5 11.4 7.3 8.8 6.1 13.8 14.2 15.7 21.9 18.7 18.5 8.8 6.5 8.4 7.1 2.4 2.2 4.1 4.1 3.5 2.8 1.9 1.1 1.2 2.2 3.9 4.0 2.0 0.6 3.2 1.5 2.4 2.9
3.5 2.8 7.5 8.1 31.8 41.7 43.4 38.1 19.2 12.2 9.9 11.6 8.5 5.7 6.7 10.9 9.7 16.6 20.4 17.9 16.0 12.6 5.1 11.2 8.1 4.3 2.9 4.3 3.6 3.2 2.4 1.7 1.2 0.7 2.5 1.0 1.0 1.5 2.0 2.8 3.2 2.9 3.1 2.8
5.2 26.8 37.5 33.7 34.7 38.6 28.6 15.6 10.8 10.1 7.7 8.3 6.3 8.0 9.4 12.3 16.5 23.3 20.1 18.9 12.0 7.1 10.8 6.8 4.3 2.3 2.1 2.4 3.3 3.0 2.7 1.0 1.6 2.1 0.0 0.7 0.6 0.4 0.8 1.2 0.1 0.5 0.9 1.4
24.9 36.7 33.1 22.6 19.2 11.0 8.1 5.2 4.9 5.6 7.8 9.0 8.8 9.4 12.0 10.6 17.6 17.0 18.5 11.1 7.7 14.0 9.7 5.7 3.5 3.2 2.0 1.0 1.0 1.3 1.3 1.5 1.9 4.2 4.4 2.8 1.9 0.9 0.7 1.5 1.9 2.0 1.8 1.6
40.4 30.0 19.8 11.2 6.4 4.6 5.6 5.6 6.1 7.5 10.8 13.2 13.8 13.1 12.2 15.7 19.7 13.7 8.0 12.9 11.7 9.3 6.7 5.5 4.8 4.4 3.8 3.3 2.7 1.9 2.0 2.6 3.4 3.2 4.3 5.3 3.0 1.9 1.4 2.2 2.2 2.2 2.3 1.6
34.3 24.1 10.2 4.4 3.3 4.4 3.5 4.7 5.6 6.3 8.2 9.6 14.0 14.5 15.7 14.4 12.7 12.5 8.5 9.0 7.3 7.1 7.0 6.6 5.6 5.3 4.5 5.0 4.7 4.3 4.3 4.7 5.3 5.7 6.7 6.2 6.4 6.9 6.5 4.5 3.7 3.3 3.7 2.7
32.7 11.4 5.8 5.3 3.8 3.7 4.0 4.3 4.5 4.9 6.3 8.2 10.6 15.1 9.7 10.0 11.4 7.5 5.6 7.0 7.3 6.4 4.8 4.2 4.4 4.1 4.4 4.6 4.2 4.2 4.5 4.5 5.0 6.1 7.3 8.4 9.1 8.6 7.0 7.0 8.4 7.5 7.1 6.4

GFSNW_prec_snow_270.txt.gz
Snowfall_Accumulation
0.0 0.0 0.0 0.0 0.0 0.0 0.0 0.0 10.2 0.0 0.0 5.3 6.8 7.0 2.1 0.0 0.0 0.0 0.0 0.0 0.0 0.0 0.0 0.0 0.0 0.0 0.0 0.0 0.0 0.0 0.0 0.6 1.2 0.5 0.0 0.0 0.0 0.0 0.0 3.4 1.3 2.9 4.0 2.8
0.0 0.0 0.0 0.0 0.0 0.0 0.0 0.0 1.7 0.0 0.0 7.3 5.1 0.0 0.0 0.0 0.0 0.0 0.0 0.0 0.0 0.0 0.0 0.0 0.0 0.0 0.0 0.0 0.0 0.0 0.0 1.2 1.0 1.5 0.4 0.0 0.8 0.1 0.1 1.4 2.4 3.0 3.9 0.6
0.0 0.0 0.0 0.0 0.0 0.0 0.0 0.0 7.7 0.0 0.0 0.0 0.0 0.0 0.4 0.0 0.0 0.0 0.0 0.0 0.0 0.0 0.0 0.0 0.0 0.0 0.0 0.0 0.0 0.0 0.0 1.6 1.0 1.0 2.4 3.5 3.2 0.3 0.7 2.8 6.3 0.7 0.6 0.3
0.0 0.0 0.0 0.0 0.0 0.0 0.0 0.0 4.1 0.0 7.8 1.0 0.0 0.0 0.0 0.0 0.0 0.0 0.0 0.0 0.0 0.0 0.0 0.0 0.0 0.0 0.0 0.0 0.0 0.0 0.0 2.3 0.5 1.0 1.6 5.6 3.1 0.9 0.9 3.6 0.7 2.2 0.1 0.3
0.0 0.0 0.0 0.0 0.0 0.0 0.0 0.0 0.0 0.0 1.2 0.0 0.0 0.0 0.0 0.0 0.0 0.0 0.0 0.0 0.0 0.0 0.0 0.0 0.0 0.0 0.0 0.0 0.0 0.0 0.0 3.6 3.2 3.3 1.9 3.4 2.6 0.4 0.7 0.5 0.1 0.0 0.0 0.0
0.0 0.0 0.0 0.0 0.0 0.0 0.0 0.0 0.0 3.1 1.7 0.4 0.9 0.9 0.0 0.1 0.0 0.0 0.0 0.0 0.0 0.0 0.0 0.0 0.0 0.0 0.0 0.0 0.0 0.0 1.7 4.5 6.4 4.9 0.6 1.4 1.8 0.6 0.2 0.0 0.0 0.0 0.3 0.0
0.0 0.0 0.0 0.0 0.0 0.0 0.0 0.0 0.0 6.8 4.0 0.6 0.6 0.0 0.0 0.5 0.0 0.1 0.0 0.0 0.0 0.0 0.0 0.0 0.0 0.0 0.0 0.0 0.0 0.0 0.0 4.0 7.5 8.7 4.0 4.3 0.0 0.0 0.0 0.0 0.1 0.2 0.1 0.0
0.0 0.0 0.0 0.0 0.0 0.0 0.0 0.0 0.0 7.7 5.8 0.4 0.1 0.0 0.3 0.0 0.0 0.0 0.0 0.0 0.0 0.0 0.0 0.0 0.4 0.1 0.0 0.0 0.0 0.0 0.0 0.9 4.3 4.6 2.8 0.0 0.0 0.0 0.0 0.0 0.2 0.0 0.0 0.0
0.0 0.0 0.0 0.0 0.0 0.0 0.0 0.0 0.0 5.3 7.1 1.7 0.0 0.0 0.0 1.0 0.8 0.3 0.0 0.0 0.0 0.0 0.0 0.0 1.3 0.1 0.0 0.0 0.0 0.0 0.0 0.0 2.4 1.8 3.0 0.7 0.0 0.0 0.0 0.0 0.4 0.0 0.0 0.0
0.0 0.0 0.0 0.0 0.0 0.0 0.0 0.0 0.0 0.0 9.9 0.5 0.0 0.6 0.3 0.0 0.3 0.9 0.0 0.0 0.0 0.0 0.1 1.3 1.2 0.1 0.0 0.0 0.0 0.1 0.4 0.6 2.3 1.4 3.2 0.0 0.0 0.0 0.0 0.1 0.2 0.0 0.0 0.0
0.0 0.0 0.0 0.0 0.0 0.0 0.0 0.0 0.0 0.0 11.1 1.3 0.0 0.0 0.1 0.2 0.0 2.4 0.2 0.0 0.0 0.1 1.1 0.8 0.1 0.5 0.1 0.0 0.0 0.0 0.0 0.4 0.4 1.5 3.3 0.5 0.0 0.0 0.1 0.0 0.0 0.0 0.0 0.0
0.0 0.0 0.0 0.0 0.0 0.0 0.0 0.0 0.0 0.0 0.3 1.5 0.0 0.0 0.0 0.0 0.0 0.0 1.9 0.0 0.1 0.0 1.3 1.5 0.6 0.8 0.6 0.1 0.4 0.0 0.0 0.0 0.2 0.1 0.2 0.0 0.0 0.0 0.0 0.0 0.0 0.0 0.0 0.0
0.0 0.0 0.0 0.0 0.0 0.0 0.0 0.0 0.0 0.0 6.8 2.2 1.4 0.4 0.0 0.0 0.0 0.0 2.7 0.1 0.0 0.0 0.1 0.7 1.4 1.9 0.5 0.6 0.1 0.0 0.0 0.0 0.1 0.0 0.0 0.0 0.0 0.0 0.0 0.0 0.0 0.0 0.0 0.0
0.0 0.0 0.0 0.0 0.0 0.0 0.0 0.0 0.0 0.0 6.1 14.0 1.5 0.0 0.0 0.0 0.0 0.0 0.0 0.0 0.0 0.0 0.8 3.0 3.9 2.4 0.6 0.5 0.1 0.0 0.0 0.0 0.0 0.0 0.0 0.0 0.0 0.0 0.0 0.0 0.0 0.0 0.0 0.0
0.0 0.0 0.0 0.0 0.0 0.0 0.0 0.0 0.0 0.0 1.1 15.2 4.6 0.7 0.3 0.0 0.0 0.0 0.0 0.0 0.0 0.8 2.8 4.4 4.3 1.5 1.6 1.7 1.4 0.4 0.0 0.0 0.1 0.1 0.0 0.0 0.0 0.0 0.0 0.0 0.2 0.1 0.0 0.0
0.0 0.0 0.0 0.0 0.0 0.0 0.0 5.4 0.0 0.0 0.0 8.0 14.8 0.5 0.3 0.0 0.0 0.0 0.0 0.0 0.1 2.3 2.0 4.4 1.2 0.1 1.0 4.7 1.7 0.0 0.0 0.0 0.0 0.0 0.0 0.0 0.0 0.1 0.0 0.9 0.3 0.1 0.0 0.7
0.0 0.0 0.0 0.0 0.0 0.0 0.6 8.9 0.0 0.0 0.0 17.6 31.2 17.5 3.4 1.2 1.3 2.2 2.7 2.3 2.1 6.1 7.6 4.0 3.4 3.2 4.3 6.4 1.4 0.0 0.0 0.0 0.0 0.0 0.0 1.1 0.3 0.0 1.1 0.5 0.2 1.3 1.0 0.6
0.0 0.0 0.0 0.0 0.0 0.0 0.2 0.0 0.0 0.0 4.4 15.9 54.2 31.1 12.2 1.8 2.8 6.3 6.6 7.3 5.6 13.1 8.4 4.6 3.3 3.1 8.9 8.2 1.1 0.1 0.1 0.7 1.6 1.8 1.2 2.4 2.1 1.3 2.1 0.3 1.6 1.3 0.8 0.2
0.0 0.0 0.0 0.0 0.0 0.2 0.0 0.0 0.0 0.0 1.5 54.4 37.9 22.1 12.4 4.8 2.3 4.4 8.0 9.2 17.9 13.3 13.1 3.8 1.9 7.4 9.9 2.6 0.9 0.6 1.3 2.3 2.0 3.1 2.6 2.0 1.2 2.0 1.8 1.4 1.1 0.6 0.3 0.0
0.0 0.0 3.1 17.3 4.3 0.0 0.0 0.0 13.4 28.4 39.3 36.0 24.2 12.6 9.4 6.7 9.5 8.8 13.2 18.9 20.2 21.6 10.0 5.1 11.9 5.5 2.4 1.5 3.2 3.2 3.3 3.1 2.7 6.1 4.8 2.8 3.4 1.8 1.6 0.9 0.6 0.2 0.1 0.1
2.8 19.3 20.1 3.3 0.0 1.5 9.9 43.8 44.4 36.0 30.3 15.5 11.6 7.4 9.1 6.9 14.5 14.9 16.8 23.3 20.6 20.3 10.1 8.1 10.3 8.5 3.2 2.6 4.5 4.5 4.0 3.4 2.7 2.0 2.3 3.3 4.8 4.8 2.7 1.0 3.3 1.5 2.4 2.9
3.5 2.8 8.7 9.1 32.9 42.9 44.7 38.8 19.5 12.6 10.3 11.9 8.8 6.1 7.2 11.5 10.4 17.3 21.3 19.1 17.1 13.7 5.9 12.2 9.2 4.9 3.3 4.9 4.5 4.3 3.7 3.0 2.5 2.0 3.6 1.9 1.8 2.0 2.3 2.9 3.2 2.9 3.1 2.8
5.2 27.5 38.6 35.0 36.3 40.2 29.6 16.1 11.4 10.7 8.5 9.3 7.5 9.2 10.5 13.3 17.3 23.9 20.6 19.5 12.7 7.8 11.4 7.6 4.9 2.8 2.8 3.4 4.5 4.4 4.2 2.4 2.8 3.1 0.7 1.2 0.9 0.5 0.8 1.2 0.1 0.5 0.9 1.4
25.6 37.9 34.0 23.5 20.1 11.5 8.9 6.0 5.7 6.4 9.0 10.5 10.7 11.4 13.7 11.8 18.4 17.8 19.1 11.7 8.2 14.6 10.3 6.3 4.3 4.2 3.1 2.2 2.3 2.6 2.6 2.6 2.8 4.8 4.7 2.9 1.9 0.9 0.7 1.5 1.9 2.0 1.8 1.6
40.7 30.7 20.5 11.8 7.1 5.4 6.6 6.6 6.9 8.3 11.7 14.6 15.5 14.8 13.8 17.1 20.8 14.7 8.9 13.7 12.2 9.8 7.3 6.3 5.7 5.4 4.8 4.4 3.6 2.7 2.6 2.9 3.6 3.3 4.3 5.3 3.0 1.9 1.4 2.2 2.2 2.2 2.3 1.6
34.3 24.5 11.0 5.2 4.2 4.4 3.5 5.3 6.3 7.1 9.1 10.6 15.1 15.7 16.7 15.4 13.6 13.2 9.3 9.5 7.9 7.9 7.9 7.6 6.6 6.2 5.3 5.6 5.1 4.6 4.5 4.8 5.4 5.7 6.7 6.2 6.4 6.9 6.5 4.5 3.7 3.3 3.7 2.7
32.7 11.9 6.6 6.1 3.8 3.7 4.0 4.3 4.5 4.9 6.7 8.8 11.0 15.5 10.3 10.8 12.0 8.2 6.4 7.9 8.3 7.3 5.5 4.8 4.9 4.5 4.7 4.9 4.4 4.3 4.5 4.5 5.0 6.1 7.3 8.4 9.1 8.6 7.0 7.0 8.4 7.5 7.1 6.4

GFSNW_prec_snow_273.txt.gz
Snowfall_Accumulation
0.0 0.0 0.0 0.0 0.0 0.0 0.0 0.0 10.8 0.0 0.0 5.3 6.8 7.1 2.1 0.0 0.0 0.0 0.0 0.0 0.0 0.0 0.0 0.0 0.0 0.0 0.0 0.0 0.0 0.0 0.0 0.6 1.2 0.5 0.0 0.0 0.0 0.0 0.0 3.4 1.3 2.9 4.0 2.8
0.0 0.0 0.0 0.0 0.0 0.0 0.0 0.0 1.7 0.0 0.0 8.7 5.3 0.0 0.0 0.0 0.0 0.0 0.0 0.0 0.0 0.0 0.0 0.0 0.0 0.0 0.0 0.0 0.0 0.0 0.0 1.2 1.0 1.5 0.4 0.0 0.8 0.1 0.1 1.4 2.4 3.0 3.9 0.6
0.0 0.0 0.0 0.0 0.0 0.0 0.0 0.0 8.8 0.0 0.0 0.0 0.0 0.0 0.4 0.0 0.0 0.0 0.0 0.0 0.0 0.0 0.0 0.0 0.0 0.0 0.0 0.0 0.0 0.0 0.0 1.6 1.0 1.0 2.4 3.5 3.2 0.3 0.7 2.8 6.3 0.7 0.6 0.3
0.0 0.0 0.0 0.0 0.0 0.0 0.0 0.0 5.3 0.0 9.0 1.9 1.5 1.7 1.6 0.6 0.1 0.0 0.0 0.0 0.0 0.0 0.1 0.0 0.0 0.0 0.0 0.0 0.0 0.0 0.0 2.3 0.5 1.0 1.6 5.6 3.1 0.9 0.9 3.6 0.7 2.2 0.1 0.3
0.0 0.0 0.0 0.0 0.0 0.0 0.0 0.7 0.7 0.0 2.4 0.9 1.2 1.3 1.3 0.7 0.0 0.0 0.0 0.0 0.0 0.0 0.0 0.0 0.0 0.0 0.0 0.0 0.0 0.0 0.0 3.6 3.2 3.3 1.9 3.4 2.6 0.4 0.7 0.5 0.1 0.0 0.0 0.0
0.0 0.0 0.0 0.0 0.0 0.0 0.0 0.0 0.0 4.8 3.2 0.7 1.3 1.4 0.0 0.8 0.7 0.0 0.0 0.0 0.0 0.0 0.0 0.0 0.0 0.0 0.0 0.0 0.0 0.0 1.7 4.5 6.4 4.9 0.6 1.4 1.8 0.6 0.2 0.0 0.0 0.0 0.3 0.0
0.0 0.0 0.0 0.0 0.0 0.0 0.0 0.0 0.0 9.1 5.3 0.6 0.6 0.0 0.1 1.0 0.0 1.5 0.0 0.0 0.2 0.0 0.0 0.0 0.0 0.0 0.0 0.0 0.0 0.0 0.0 4.0 7.5 8.7 4.0 4.4 0.0 0.0 0.0 0.0 0.1 0.2 0.1 0.0
0.0 0.0 0.0 0.0 0.0 0.0 0.0 0.0 0.0 9.2 7.1 0.4 0.1 0.0 0.3 0.0 0.0 0.4 0.3 0.0 0.0 0.0 0.0 0.0 1.4 1.1 0.8 0.4 0.0 0.0 0.0 0.9 4.3 4.7 2.9 0.0 0.0 0.0 0.0 0.0 0.2 0.0 0.0 0.0
0.0 0.0 0.0 0.0 0.0 0.0 0.0 0.0 0.0 6.4 8.6 2.1 0.0 0.0 0.0 1.2 1.1 0.3 0.0 0.0 0.0 0.0 0.0 0.0 1.8 0.1 0.2 0.0 0.0 0.0 0.0 0.0 2.4 2.0 3.1 0.7 0.0 0.0 0.0 0.0 0.4 0.0 0.0 0.0
0.0 0.0 0.0 0.0 0.0 0.0 0.0 0.0 0.0 0.0 11.5 0.5 0.0 0.9 0.3 0.0 0.3 1.5 0.0 0.0 0.0 0.0 0.7 2.0 1.4 0.1 0.0 0.0 0.0 0.1 0.4 0.6 2.4 1.5 3.4 0.0 0.0 0.0 0.0 0.1 0.2 0.0 0.0 0.0
0.0 0.0 0.0 0.0 0.0 0.0 0.0 0.0 0.0 0.0 12.4 1.3 0.0 0.0 0.1 0.2 0.2 2.9 0.2 1.0 0.0 1.6 2.6 1.6 0.4 0.5 0.1 0.0 0.0 0.0 0.0 0.4 0.5 1.6 3.6 0.5 0.0 0.0 0.1 0.0 0.0 0.0 0.0 0.0
0.0 0.0 0.0 0.0 0.0 0.0 0.0 0.0 0.0 0.0 1.5 1.5 0.0 0.0 0.0 0.0 0.0 0.0 1.9 1.3 0.1 2.3 3.3 2.8 0.6 0.8 0.6 0.1 0.4 0.0 0.0 0.0 0.2 0.1 0.2 0.0 0.0 0.0 0.0 0.0 0.0 0.0 0.0 0.0
0.0 0.0 0.0 0.0 0.0 0.0 0.0 0.0 0.0 0.0 8.7 3.3 1.4 0.4 0.0 0.0 0.0 0.0 3.1 0.1 0.0 0.0 0.1 3.1 3.1 2.5 0.5 0.6 0.1 0.0 0.0 0.0 0.1 0.0 0.0 0.0 0.0 0.0 0.0 0.0 0.0 0.0 0.0 0.0
0.0 0.0 0.0 0.0 0.0 0.0 0.0 0.0 0.0 0.0 8.1 16.6 2.0 0.0 0.0 0.0 0.0 0.0 0.0 0.0 0.0 0.0 0.8 5.2 6.3 3.9 0.6 0.5 0.1 0.0 0.0 0.0 0.0 0.0 0.0 0.0 0.0 0.0 0.0 0.0 0.0 0.0 0.0 0.0
0.0 0.0 0.0 0.0 0.0 0.0 0.0 0.0 0.0 0.0 1.9 17.3 5.6 0.7 0.3 0.0 0.0 0.0 0.0 0.0 0.0 0.8 2.8 6.2 5.6 1.5 2.0 1.9 1.4 0.4 0.0 0.0 0.1 0.1 0.0 0.0 0.0 0.0 0.0 0.0 0.2 0.1 0.0 0.0
0.0 0.0 0.0 0.0 0.0 0.0 0.0 5.7 0.0 0.0 0.0 10.1 15.9 0.5 0.3 0.0 0.0 0.0 0.0 0.0 0.1 2.3 4.4 5.9 1.2 0.1 1.0 5.0 1.7 0.0 0.0 0.0 0.0 0.0 0.0 0.0 0.0 0.1 0.0 0.9 0.3 0.1 0.0 0.7
0.0 0.0 0.0 0.0 0.0 0.0 0.6 9.3 0.0 0.0 0.0 23.0 34.8 18.2 3.4 1.2 1.3 2.2 2.7 2.3 2.1 6.1 10.2 6.4 4.3 3.2 4.3 7.0 1.6 0.0 0.0 0.0 0.0 0.0 0.0 1.1 0.3 0.0 1.1 0.5 0.2 1.3 1.0 0.6
0.0 0.0 0.0 0.0 0.0 0.0 0.2 0.0 0.0 0.0 4.4 19.9 56.5 31.3 12.2 1.8 2.8 6.3 6.6 7.3 5.9 14.7 8.4 6.7 3.3 3.8 9.5 9.0 1.2 0.1 0.1 0.7 1.6 1.8 1.2 2.4 2.1 1.3 2.1 0.3 1.6 1.3 1.3 1.0
0.0 0.0 0.0 0.0 0.0 0.2 0.0 0.0 0.0 0.0 1.5 57.0 39.0 22.1 12.4 4.8 3.1 5.1 8.7 10.3 19.4 15.3 15.2 5.5 3.1 9.8 12.7 4.0 1.1 0.6 1.3 2.3 2.0 3.1 2.6 2.0 1.2 2.0 1.8 1.4 1.1 1.3 1.4 1.1
0.0 0.0 3.1 17.5 4.3 0.0 0.0 0.0 13.7 28.9 40.0 36.9 24.7 12.7 9.4 6.7 9.5 10.5 14.8 20.3 21.8 23.2 11.4 7.1 15.2 8.6 4.5 2.5 3.7 3.5 3.6 3.4 3.1 6.5 5.3 3.2 3.9 2.4 2.3 2.0 1.9 1.4 1.1 0.7
2.8 19.3 20.7 3.3 0.0 1.5 10.4 44.1 44.7 36.3 30.7 16.1 11.9 7.4 9.1 6.9 15.6 16.6 18.7 24.8 22.0 21.4 11.0 9.8 12.4 10.4 4.5 3.5 5.2 5.2 4.8 4.4 3.8 3.2 3.6 4.6 6.0 6.0 3.9 2.3 4.5 2.4 2.9 3.0
3.5 2.8 8.7 9.5 33.7 43.8 45.5 39.4 19.9 13.1 10.7 12.2 8.9 6.2 7.5 12.3 11.9 19.1 23.0 20.3 18.3 14.6 6.4 13.3 10.5 5.9 4.2 5.8 5.4 5.3 4.8 4.2 3.7 3.3 4.7 3.1 3.0 3.3 3.4 3.8 3.9 3.2 3.2 2.8
5.2 28.0 39.2 36.0 37.2 41.0 30.3 16.9 12.0 11.1 8.7 9.4 7.8 9.5 10.9 13.9 18.0 25.0 22.0 20.8 13.6 8.4 11.8 8.1 5.7 3.6 3.7 4.5 5.7 5.6 5.5 3.6 3.9 4.2 1.8 2.1 1.9 1.5 1.5 1.6 0.2 0.5 0.9 1.4
25.6 37.9 34.0 23.5 20.4 12.0 9.5 6.6 6.2 6.8 9.4 10.9 11.5 12.4 14.5 12.7 19.2 18.6 20.0 12.7 9.0 15.0 10.5 6.7 4.9 4.8 4.0 3.2 3.5 3.7 3.7 3.8 3.8 5.7 5.6 3.6 2.4 1.2 0.9 1.5 1.9 2.0 1.8 1.6
40.7 30.7 20.7 12.1 7.8 6.3 7.6 7.5 7.6 8.9 12.3 15.3 16.3 16.0 15.1 18.3 21.8 15.4 9.4 14.2 12.7 10.3 7.9 7.0 6.6 6.3 5.7 5.3 4.6 3.6 3.5 3.8 4.3 3.9 4.7 5.5 3.1 1.9 1.4 2.2 2.2 2.2 2.3 1.6
34.3 24.5 11.0 5.2 4.2 4.4 3.5 5.3 6.3 7.6 9.8 11.5 16.0 16.6 17.4 16.1 14.3 13.6 9.7 9.9 8.5 8.8 9.0 8.6 7.6 7.2 6.2 6.4 5.9 5.3 5.1 5.4 5.8 5.9 6.7 6.2 6.4 6.9 6.5 4.5 3.7 3.3 3.7 2.7
32.7 11.9 6.7 6.2 3.9 3.7 4.0 4.3 4.5 4.9 7.1 9.3 11.4 15.8 10.7 11.4 12.4 8.8 6.9 8.6 9.2 8.2 6.5 5.9 5.9 5.2 5.3 5.4 4.8 4.6 4.5 4.5 5.0 6.1 7.3 8.4 9.1 8.6 7.0 7.0 8.4 7.5 7.1 6.4

GFSNW_prec_snow_276.txt.gz
Snowfall_Accumulation
0.0 0.0 0.0 0.0 0.0 0.0 0.0 0.0 10.9 0.0 0.0 5.3 9.3 8.3 2.1 0.0 0.0 0.0 0.0 0.0 0.0 0.0 0.0 0.0 0.0 0.0 0.0 0.0 0.0 0.0 0.0 0.6 1.2 0.5 0.0 0.0 0.0 0.0 0.0 3.4 1.3 2.9 4.0 2.8
0.0 0.0 0.0 0.0 0.0 0.0 0.0 0.1 1.7 0.0 0.0 9.9 6.3 0.0 0.0 0.0 0.0 0.0 0.0 0.0 0.0 0.0 0.0 0.0 0.0 0.0 0.0 0.0 0.0 0.0 0.0 1.2 1.0 1.5 0.4 0.0 0.8 0.1 0.1 1.4 2.4 3.0 3.9 0.6
0.0 0.0 0.0 0.0 0.0 0.0 0.0 0.0 8.8 0.0 0.0 0.0 2.4 3.0 1.9 1.0 0.0 0.0 0.0 0.0 0.0 0.0 0.0 0.0 0.0 0.0 0.0 0.0 0.0 0.0 0.0 1.6 1.0 1.0 2.4 3.5 3.2 0.3 0.7 2.8 6.3 0.7 0.6 0.3
0.0 0.0 0.0 0.0 0.0 0.0 0.0 0.2 5.3 0.0 9.0 1.9 3.6 4.2 3.4 1.7 1.3 0.0 0.0 0.0 0.0 0.0 0.5 0.5 0.6 0.0 0.0 0.0 0.0 0.0 0.0 2.3 0.5 1.0 1.6 5.6 3.1 0.9 0.9 3.6 0.7 2.2 0.1 0.3
0.0 0.0 0.0 0.0 0.0 0.0 0.0 0.8 1.0 0.0 2.4 0.9 1.9 2.5 2.0 1.2 1.6 1.6 0.9 0.7 0.3 0.2 0.6 0.7 0.3 0.0 0.0 0.0 0.0 0.0 0.0 3.6 3.2 3.3 1.9 3.4 2.6 0.4 0.7 0.5 0.1 0.0 0.0 0.0
0.0 0.0 0.0 0.0 0.0 0.0 0.0 0.0 0.0 5.5 3.2 0.7 1.3 1.6 0.3 1.3 1.2 0.6 0.5 0.9 1.3 0.3 0.0 0.0 0.0 0.0 0.0 0.0 0.0 0.0 1.7 4.5 6.4 4.9 0.6 1.4 1.8 0.6 0.2 0.0 0.0 0.0 0.3 0.0
0.0 0.0 0.0 0.0 0.0 0.0 0.0 0.0 0.0 9.4 5.3 0.6 0.6 0.0 0.1 1.1 0.0 1.5 0.0 0.0 1.1 0.0 0.0 0.0 0.0 0.0 0.0 0.0 0.0 0.0 0.0 4.0 7.5 8.7 4.0 4.4 0.0 0.0 0.0 0.0 0.1 0.2 0.1 0.0
0.0 0.0 0.0 0.0 0.0 0.0 0.0 0.0 0.0 9.5 7.1 0.4 0.1 0.0 0.3 0.0 0.0 0.4 0.3 0.0 0.0 0.0 0.0 0.6 2.2 1.8 1.2 0.7 0.0 0.0 0.0 0.9 4.3 4.8 2.9 0.0 0.0 0.0 0.0 0.0 0.2 0.0 0.0 0.0
0.0 0.0 0.0 0.0 0.0 0.0 0.0 0.0 0.0 8.0 9.3 2.1 0.0 0.0 0.0 1.2 1.1 0.3 0.0 0.0 0.0 0.0 1.2 2.0 3.2 0.7 0.4 0.0 0.0 0.0 0.0 0.0 2.7 2.8 3.6 0.7 0.0 0.0 0.0 0.0 0.4 0.0 0.0 0.0
0.0 0.0 0.0 0.0 0.0 0.0 0.0 0.0 0.0 0.0 12.7 0.5 0.0 0.9 0.3 0.0 0.5 1.7 0.0 0.2 0.0 0.0 2.3 4.5 3.1 0.7 0.0 0.0 0.0 0.1 0.4 0.8 3.2 2.2 3.8 0.0 0.0 0.0 0.0 0.1 0.2 0.0 0.0 0.0
0.0 0.0 0.0 0.0 0.0 0.0 0.0 0.0 0.0 0.0 13.2 1.3 0.0 0.0 0.1 0.2 0.2 3.1 0.2 1.4 0.1 2.0 3.6 3.2 0.4 1.2 0.1 0.0 0.0 0.0 0.0 0.5 0.8 2.3 4.8 0.9 0.0 0.0 0.1 0.0 0.0 0.0 0.0 0.0
0.0 0.0 0.0 0.0 0.0 0.0 0.0 0.0 0.0 0.0 2.2 1.5 0.0 0.0 0.0 0.0 0.0 0.0 1.9 1.8 0.1 2.8 4.4 2.8 3.5 2.9 2.0 0.7 0.5 0.0 0.0 0.0 0.2 0.1 0.2 0.0 0.0 0.0 0.0 0.0 0.0 0.0 0.0 0.0
0.0 0.0 0.0 0.0 0.0 0.0 0.0 0.0 0.0 0.0 9.8 3.7 1.5 0.4 0.0 0.0 0.0 0.0 3.5 0.1 0.0 0.1 0.1 3.6 4.7 4.6 2.0 1.7 0.9 0.0 0.0 0.0 0.1 0.0 0.0 0.0 0.0 0.0 0.0 0.0 0.0 0.0 0.0 0.0
0.0 0.0 0.0 0.0 0.0 0.0 0.0 0.0 0.0 0.0 9.7 17.2 2.0 0.0 0.0 0.0 0.0 0.0 0.0 0.0 0.0 0.0 0.8 6.2 7.5 4.9 0.6 0.5 0.5 0.0 0.3 0.0 0.0 0.0 0.0 0.0 0.0 0.0 0.0 0.0 0.0 0.0 0.0 0.0
0.0 0.0 0.0 0.0 0.0 0.0 0.0 0.0 0.0 0.0 2.4 17.3 5.6 0.7 0.3 0.0 0.0 0.0 0.0 0.0 0.0 0.8 3.1 7.4 6.3 1.6 2.3 2.6 2.0 0.4 0.0 0.0 0.2 0.1 0.0 0.0 0.0 0.0 0.0 0.0 0.2 0.1 0.0 0.0
0.0 0.0 0.0 0.0 0.0 0.0 0.0 5.7 0.0 0.0 0.0 12.0 17.9 0.5 0.3 0.0 0.0 0.0 0.0 0.0 0.1 2.3 5.0 6.7 1.4 0.1 1.3 5.9 2.6 0.0 0.0 0.0 0.0 0.0 0.0 0.0 0.0 0.1 0.0 0.9 0.3 0.1 0.0 0.7
0.0 0.0 0.0 0.0 0.0 0.0 0.6 9.3 0.0 0.0 0.0 24.1 34.8 18.2 3.4 1.2 1.3 2.2 2.7 2.3 2.1 6.5 11.3 7.9 4.7 3.3 4.3 7.8 2.3 0.0 0.0 0.0 0.0 0.0 0.0 1.1 0.3 0.0 1.1 0.5 0.2 1.3 1.0 0.6
0.0 0.0 0.0 0.0 0.0 0.0 0.2 0.0 0.0 0.0 4.4 20.9 57.6 31.3 12.2 1.8 2.8 6.3 6.6 7.3 5.9 15.5 9.1 7.1 3.4 3.9 10.1 10.4 1.2 0.2 0.2 0.9 1.7 1.8 1.2 2.4 2.1 1.3 2.1 0.3 1.6 1.3 1.3 1.1
0.0 0.0 0.0 0.0 0.0 0.2 0.0 0.0 0.0 0.0 1.5 58.7 40.2 22.4 12.4 4.8 3.1 5.1 9.1 10.9 20.4 15.3 15.8 5.7 3.1 11.0 14.7 5.6 1.6 0.6 1.6 2.7 2.3 3.5 2.8 2.0 1.2 2.0 1.8 1.4 1.1 1.3 2.1 1.9
0.0 0.0 3.1 17.5 4.3 0.0 0.0 0.0 14.2 29.6 41.1 38.3 25.4 13.0 9.6 6.7 9.6 11.0 15.6 21.1 22.8 24.9 13.0 8.7 16.9 10.4 5.7 3.3 4.4 4.2 4.3 4.1 4.2 7.9 6.7 4.2 4.7 3.5 3.6 3.0 3.1 2.5 2.3 2.0
2.8 19.3 21.1 3.3 0.0 1.8 10.9 44.6 45.1 36.6 31.1 16.6 12.3 7.7 9.3 6.9 16.0 17.4 19.8 25.8 23.4 23.2 13.2 12.0 13.7 11.3 5.4 4.3 6.1 6.3 5.9 5.7 5.3 4.8 5.3 6.5 7.8 7.8 5.6 4.1 6.1 3.6 3.9 3.8
3.5 2.8 8.7 9.5 33.7 43.8 46.1 40.2 20.8 13.8 11.3 12.5 9.1 6.3 7.5 12.4 12.5 20.1 24.1 21.5 19.7 16.1 7.9 14.8 11.4 6.6 5.2 7.1 6.6 6.5 6.2 5.7 5.4 5.1 6.6 5.0 4.8 4.8 4.6 4.9 4.9 4.1 3.8 3.1
5.2 28.0 39.2 36.0 37.2 41.0 30.4 17.1 12.0 11.1 8.7 9.9 8.1 9.6 11.1 14.1 18.6 25.8 22.9 21.7 14.6 9.5 12.9 9.1 6.5 4.5 4.8 5.8 7.3 7.3 7.0 5.2 5.5 5.8 3.2 3.4 3.1 2.8 2.3 2.5 1.0 0.9 1.1 1.4
25.6 37.9 34.0 23.5 20.4 12.0 10.0 7.4 7.0 7.3 9.8 11.3 12.1 13.0 15.1 13.2 19.8 19.2 20.7 13.5 9.4 15.5 11.1 7.5 5.7 5.7 5.1 4.4 4.7 5.0 5.2 5.2 5.1 7.0 6.7 4.6 3.2 2.0 1.5 1.7 2.0 2.1 1.8 1.6
40.7 30.7 20.7 12.1 7.8 6.3 7.6 7.5 7.6 9.3 12.7 15.8 16.9 16.8 16.0 18.9 22.3 15.8 9.8 14.4 12.9 10.7 8.6 7.7 7.4 7.2 6.7 6.3 5.6 4.6 4.5 4.7 5.1 4.7 5.3 6.0 3.4 2.0 1.5 2.2 2.2 2.2 2.3 1.6
34.3 24.5 11.0 5.2 4.2 4.4 3.5 5.3 6.3 7.6 10.0 11.9 16.5 16.6 17.4 16.1 14.6 13.8 10.0 10.1 8.9 9.4 9.7 9.5 8.5 8.1 7.0 7.3 6.7 6.1 6.0 6.1 6.4 6.3 7.0 6.3 6.4 6.9 6.5 4.5 3.7 3.3 3.7 2.7
32.7 11.9 6.7 6.2 3.9 3.7 4.0 4.3 4.5 4.9 7.1 9.3 11.4 15.8 10.8 11.7 12.4 9.0 7.2 9.0 9.8 8.9 7.1 6.6 6.6 6.0 6.0 6.1 5.3 5.0 4.5 4.5 5.0 6.1 7.3 8.4 9.1 8.6 7.0 7.0 8.4 7.5 7.1 6.4

GFSNW_prec_snow_279.txt.gz
Snowfall_Accumulation
0.0 0.0 0.0 0.0 0.0 0.0 0.0 0.0 10.9 0.0 0.0 5.4 10.1 10.3 3.8 0.0 0.2 0.0 0.0 0.0 0.0 0.0 0.0 0.0 0.0 0.0 0.0 0.0 0.0 0.0 0.0 0.6 1.2 0.5 0.0 0.0 0.0 0.0 0.0 3.4 1.3 2.9 4.0 2.8
0.0 0.0 0.0 0.0 0.0 0.0 0.0 0.2 1.7 0.0 0.0 10.2 6.6 1.1 0.0 2.1 1.4 0.6 0.0 0.0 0.0 0.0 0.0 0.0 0.0 0.0 0.0 0.0 0.0 0.0 0.0 1.2 1.0 1.5 0.4 0.0 0.8 0.1 0.1 1.4 2.4 3.0 3.9 0.6
0.0 0.0 0.0 0.0 0.0 0.0 0.0 0.0 8.9 0.0 0.0 0.0 3.2 4.0 1.9 1.0 1.1 2.1 0.8 0.8 0.0 0.0 0.0 0.0 0.0 0.0 0.0 0.0 0.0 0.0 0.0 1.6 1.0 1.0 2.4 3.5 3.2 0.3 0.7 2.8 6.3 0.7 0.6 0.3
0.0 0.0 0.0 0.0 0.0 0.0 0.0 0.5 5.4 0.0 9.0 1.9 3.6 4.2 4.2 2.0 2.5 0.0 1.8 1.1 0.7 1.0 1.8 0.9 1.1 0.0 0.0 0.0 0.0 0.0 0.0 2.3 0.5 1.0 1.6 5.6 3.1 0.9 0.9 3.6 0.7 2.2 0.1 0.3
0.0 0.0 0.0 0.0 0.0 0.0 0.0 1.3 1.2 0.1 2.4 0.9 1.9 2.5 2.0 1.2 1.6 2.2 2.4 2.1 1.4 1.3 2.2 1.9 0.8 0.0 0.0 0.0 0.0 0.0 0.0 3.6 3.2 3.3 1.9 3.4 2.6 0.4 0.7 0.5 0.1 0.0 0.0 0.0
0.0 0.0 0.0 0.0 0.0 0.0 0.0 0.0 0.0 6.0 3.2 0.7 1.3 1.6 0.3 1.6 1.2 0.6 0.5 1.2 1.3 0.7 0.5 0.0 0.0 0.0 0.0 0.0 0.0 0.0 1.7 4.5 6.4 4.9 0.6 1.4 1.8 0.6 0.2 0.0 0.0 0.0 0.3 0.0
0.0 0.0 0.0 0.0 0.0 0.0 0.0 0.0 0.0 10.2 5.3 0.6 0.6 0.0 0.1 1.1 0.0 1.5 0.0 0.0 1.1 0.0 0.0 0.0 0.0 0.0 0.0 0.0 0.0 0.0 0.8 4.6 7.8 8.8 4.0 4.5 0.0 0.0 0.0 0.0 0.1 0.2 0.1 0.0
0.0 0.0 0.0 0.0 0.0 0.0 0.0 0.0 0.0 10.2 7.4 0.4 0.1 0.0 0.3 0.0 0.0 0.4 0.3 0.0 0.0 0.0 0.0 1.3 2.9 2.4 1.8 1.1 0.0 0.0 0.0 1.3 4.9 5.1 2.9 0.0 0.0 0.0 0.0 0.0 0.2 0.0 0.0 0.0
0.0 0.0 0.0 0.0 0.0 0.0 0.0 0.0 0.0 8.8 10.6 2.1 0.0 0.0 0.0 1.2 1.1 0.3 0.0 0.0 0.0 0.0 1.9 3.1 4.8 2.0 0.9 0.2 0.2 0.0 0.0 0.0 4.1 4.3 4.1 0.9 0.0 0.0 0.0 0.0 0.4 0.0 0.0 0.0
0.0 0.0 0.0 0.0 0.0 0.0 0.0 0.0 0.0 0.0 13.3 0.5 0.0 0.9 0.3 0.0 0.5 1.8 0.0 0.2 0.0 0.0 2.3 5.0 3.9 1.6 0.9 0.9 0.0 0.1 0.5 1.2 4.6 3.2 4.3 0.0 0.0 0.0 0.0 0.1 0.2 0.0 0.0 0.0
0.0 0.0 0.0 0.0 0.0 0.0 0.0 0.0 0.0 0.0 14.1 1.3 0.0 0.0 0.1 0.2 0.2 3.2 0.2 1.4 0.2 2.4 4.5 3.8 1.0 2.3 1.5 1.7 0.9 0.0 0.0 0.6 1.0 2.6 5.9 1.4 0.0 0.0 0.1 0.0 0.0 0.0 0.0 0.0
0.0 0.0 0.0 0.0 0.0 0.0 0.0 0.0 0.0 0.0 3.1 1.5 0.0 0.0 0.0 0.0 0.0 0.0 1.9 1.8 0.1 2.8 4.4 2.8 5.0 4.8 3.4 2.3 2.2 1.1 0.5 0.0 0.2 0.1 0.2 0.0 0.0 0.0 0.0 0.0 0.0 0.0 0.0 0.0
0.0 0.0 0.0 0.0 0.0 0.0 0.0 0.0 0.0 0.0 10.6 4.2 1.5 0.4 0.0 0.0 0.0 0.0 3.7 0.1 0.0 0.1 0.1 4.2 5.4 5.3 2.8 2.0 0.9 0.0 1.3 0.8 1.0 0.9 0.0 0.0 0.0 0.0 0.0 0.0 0.0 0.0 0.0 0.0
0.0 0.0 0.0 0.0 0.0 0.0 0.0 0.0 0.0 0.0 11.0 18.4 2.0 0.0 0.0 0.0 0.0 0.0 0.0 0.0 0.0 0.0 1.1 7.3 8.8 5.5 0.6 0.5 0.7 0.2 0.3 0.0 0.0 0.0 0.0 0.0 0.0 0.0 0.0 0.0 0.0 0.0 0.0 0.0
0.0 0.0 0.0 0.0 0.0 0.0 0.0 0.0 0.0 0.0 5.1 18.9 5.7 0.7 0.3 0.0 0.0 0.0 0.0 0.0 0.0 0.8 3.8 8.6 6.8 1.6 2.5 2.6 2.1 0.4 0.0 0.0 0.3 0.1 0.0 0.0 0.0 0.0 0.0 0.0 0.2 0.1 0.0 0.0
0.0 0.0 0.0 0.0 0.0 0.0 0.0 5.7 0.0 0.0 0.0 12.4 18.1 0.5 0.3 0.0 0.0 0.0 0.0 0.0 0.2 2.5 5.6 7.3 1.6 0.1 1.6 6.3 2.6 0.0 0.0 0.0 0.0 0.0 0.0 0.0 0.0 0.1 0.0 0.9 0.3 0.1 0.0 0.7
0.0 0.0 0.0 0.0 0.0 0.0 0.6 9.3 0.0 0.0 0.0 24.4 34.8 18.2 3.4 1.2 1.3 2.2 2.7 2.3 2.2 6.8 11.9 8.3 4.8 3.5 5.2 9.1 2.9 0.1 0.0 0.0 0.0 0.0 0.0 1.1 0.3 0.1 1.1 0.5 0.2 1.3 1.0 0.6
0.0 0.0 0.0 0.0 0.0 0.0 0.2 0.0 0.0 0.0 4.4 21.2 57.8 31.3 12.2 1.8 2.8 6.4 6.6 7.3 6.2 16.3 9.9 7.7 3.6 4.3 10.9 11.6 1.2 0.2 0.2 0.9 1.7 1.8 1.2 2.7 2.5 2.2 2.7 0.3 1.6 1.3 1.3 1.1
0.0 0.0 0.0 0.0 0.0 0.2 0.0 0.0 0.0 0.0 1.5 58.9 40.5 22.4 12.5 4.9 3.1 5.1 9.2 11.5 21.6 16.0 16.3 5.9 3.9 12.5 16.7 6.5 1.8 0.6 1.6 2.9 2.4 3.5 2.8 2.0 1.8 2.5 2.3 1.9 1.7 1.3 2.6 1.9
0.0 0.0 3.1 17.5 4.3 0.0 0.0 0.0 14.6 30.3 42.8 40.1 26.3 13.4 9.9 6.7 9.6 11.0 15.6 22.0 23.9 26.5 14.7 10.4 18.6 11.5 6.3 3.6 4.7 4.4 4.5 4.3 4.4 8.2 6.7 4.2 5.5 4.5 4.9 4.4 4.2 3.4 3.5 3.5
2.8 19.3 21.2 3.3 0.0 1.8 10.9 44.6 45.7 37.3 31.9 17.2 12.6 7.9 9.4 6.9 16.1 17.6 20.3 26.8 24.8 24.8 14.4 13.4 15.2 12.3 5.9 4.7 6.4 6.5 6.2 5.9 5.6 5.3 5.9 7.6 9.5 9.7 7.4 5.9 8.0 5.5 5.6 5.1
3.5 2.8 8.7 9.5 33.7 43.8 46.1 40.2 21.2 14.4 11.8 12.8 9.4 6.3 7.5 12.5 12.7 20.5 24.7 22.4 20.7 17.2 8.9 15.9 12.3 7.2 5.8 7.6 7.1 7.0 6.7 6.2 6.0 5.9 7.7 6.4 6.4 6.6 6.6 6.9 6.7 5.5 4.9 4.1
5.2 28.0 39.2 36.0 37.2 41.0 30.4 17.1 12.0 11.3 8.9 10.1 8.4 9.8 11.2 14.4 19.1 26.3 23.6 22.4 15.5 10.2 12.9 9.7 7.3 5.3 5.6 6.6 8.1 8.2 7.9 6.1 6.4 7.0 4.7 5.0 4.9 4.7 3.9 4.0 2.2 1.8 1.8 2.0
25.6 37.9 34.0 23.5 20.4 12.0 10.0 7.4 7.0 7.3 10.1 11.6 12.4 13.3 15.4 13.8 20.3 19.7 21.2 14.0 9.7 15.7 11.4 8.1 6.5 6.6 6.0 5.4 5.8 6.0 6.1 6.3 6.1 8.2 7.9 5.9 4.5 3.3 2.8 2.7 2.9 2.7 2.3 2.0
40.7 30.7 20.7 12.1 7.8 6.3 7.6 7.5 7.6 9.3 12.7 16.0 17.1 17.1 16.3 19.2 22.5 15.9 10.0 14.5 13.0 10.9 8.9 8.2 8.1 8.2 7.7 7.2 6.4 5.4 5.3 5.6 5.9 5.7 6.2 6.9 4.3 2.7 2.1 2.8 2.6 2.5 2.6 1.8
34.3 24.5 11.0 5.2 4.2 4.4 3.5 5.3 6.3 7.6 10.1 12.0 16.7 16.6 17.5 16.1 14.6 13.8 10.1 10.1 9.2 9.8 10.2 9.9 9.0 8.7 7.8 8.0 7.5 6.8 6.7 6.7 7.0 6.9 7.5 6.7 6.7 7.2 6.7 4.7 3.9 3.4 3.7 2.7
32.7 11.9 6.7 6.2 3.9 3.7 4.0 4.3 4.5 4.9 7.2 9.3 11.4 15.8 10.8 11.7 12.4 9.0 7.3 9.2 10.1 9.3 7.5 7.0 7.1 6.4 6.5 6.6 5.8 5.4 4.7 4.5 5.0 6.1 7.3 8.4 9.1 8.6 7.0 7.0 8.4 7.5 7.1 6.4

GFSNW_prec_snow_285.txt.gz
Snowfall_Accumulation
0.0 0.0 0.0 0.0 0.0 0.0 0.0 0.0 11.1 0.0 0.0 5.4 10.4 11.0 4.6 0.4 0.2 0.0 0.7 0.6 0.6 0.7 0.6 1.4 0.0 0.3 0.0 0.0 0.0 0.0 0.0 0.6 1.2 0.5 0.0 0.0 0.0 0.0 0.0 3.4 1.3 2.9 4.0 2.8
0.0 0.0 0.0 0.0 0.0 0.0 0.0 4.4 2.4 0.0 0.0 10.4 6.6 1.1 0.0 2.1 1.9 0.6 2.2 1.8 2.3 1.6 0.7 3.3 0.0 2.5 1.9 0.4 0.0 0.0 0.0 1.2 1.4 1.5 0.4 0.0 0.8 0.1 0.1 1.4 2.4 3.0 3.9 0.6
0.0 0.0 0.0 0.0 0.0 0.0 0.0 4.5 10.6 0.0 0.0 0.0 3.2 4.0 1.9 1.0 1.1 2.1 2.1 2.4 0.0 2.1 0.8 0.0 3.9 2.7 3.4 2.1 0.7 0.0 0.0 1.6 1.0 1.0 2.4 3.5 3.2 0.3 0.7 2.8 6.3 0.7 0.6 0.3
0.0 0.0 0.0 0.0 0.0 0.0 0.0 5.5 6.8 0.0 9.0 1.9 3.6 4.2 4.2 2.0 2.5 0.3 1.8 2.3 1.8 3.1 3.8 1.7 1.8 0.7 0.4 0.0 2.0 0.4 0.0 2.5 0.5 1.0 1.6 5.6 3.1 0.9 0.9 3.6 0.7 2.2 0.1 0.3
0.0 0.0 0.0 0.0 0.0 0.0 0.0 5.3 3.1 1.5 3.0 0.9 1.9 2.5 2.0 1.2 1.6 2.2 2.4 2.1 1.4 1.3 3.1 3.1 2.6 1.8 0.0 1.8 2.0 1.3 0.8 4.1 3.2 3.3 1.9 3.4 2.8 0.4 0.7 0.5 0.1 0.0 0.0 0.0
0.0 0.0 0.0 0.0 0.0 0.0 0.0 2.4 0.0 8.5 3.2 0.7 1.6 1.7 0.3 1.6 1.3 0.6 0.5 1.2 1.3 0.7 0.5 0.0 0.0 0.3 0.0 0.9 0.7 0.7 3.3 5.1 6.7 5.4 0.6 2.2 2.9 0.7 0.2 0.0 0.0 0.0 0.3 0.0
0.0 0.0 0.0 0.0 0.0 0.0 0.0 0.0 2.8 14.1 6.9 0.8 0.6 0.0 0.1 1.1 0.0 1.6 0.0 0.0 1.1 0.0 0.0 0.0 0.0 0.0 0.0 0.0 0.1 0.0 1.8 4.8 8.0 9.8 4.1 6.0 0.0 0.0 0.0 0.0 0.1 0.2 0.1 0.0
0.0 0.0 0.0 0.0 0.0 0.0 0.0 0.0 3.1 13.8 9.1 0.4 0.2 0.0 0.3 0.0 0.0 0.4 0.3 0.0 0.0 0.0 0.0 1.4 2.9 2.4 1.8 1.1 0.0 0.0 0.0 2.0 7.0 6.8 3.1 0.0 0.0 0.0 0.0 0.0 0.2 0.0 0.0 0.0
0.0 0.0 0.0 0.0 0.0 0.0 0.0 0.0 0.0 12.3 12.6 2.1 0.0 0.0 0.0 1.2 1.1 0.3 0.0 0.0 0.0 0.0 2.1 3.7 5.8 2.0 0.9 1.4 0.6 0.0 0.3 1.1 6.2 6.3 6.1 2.4 0.0 0.0 0.0 0.0 0.4 0.0 0.0 0.0
0.0 0.0 0.0 0.0 0.0 0.0 0.0 0.0 0.0 2.5 15.7 0.5 0.0 0.9 0.3 0.0 0.5 1.8 0.0 0.2 0.0 0.0 2.3 5.2 4.1 1.8 1.6 0.9 2.4 1.2 1.0 3.0 6.3 4.0 5.0 0.0 0.0 0.0 0.0 0.2 0.2 0.0 0.0 0.0
0.0 0.0 0.0 0.0 0.0 0.0 0.0 0.0 0.0 0.0 17.0 1.6 0.0 0.0 0.1 0.2 0.2 3.2 0.2 1.6 0.2 2.4 5.0 5.5 1.4 3.4 1.5 2.1 2.0 3.3 3.3 4.4 4.1 4.5 7.6 2.3 0.2 0.0 0.4 0.1 0.0 0.0 0.0 0.0
0.0 0.0 0.0 0.0 0.0 0.0 0.0 0.0 0.0 0.0 5.3 1.6 0.0 0.0 0.0 0.0 0.0 0.0 1.9 1.8 0.1 2.8 4.4 2.8 5.0 4.8 3.4 2.3 2.8 1.2 4.1 5.5 6.2 4.3 3.4 2.0 1.3 1.4 1.1 0.5 0.2 0.0 0.0 0.0
0.0 0.0 0.0 0.0 0.0 0.0 0.0 0.0 0.0 0.0 11.8 4.4 1.5 0.4 0.0 0.0 0.0 0.0 3.7 0.1 0.0 0.1 0.1 4.6 6.0 5.5 2.8 2.6 1.1 0.2 2.6 2.1 2.0 2.1 0.2 0.1 1.5 1.4 1.3 1.3 1.1 0.5 0.0 0.0
0.0 0.0 0.0 0.0 0.0 0.0 0.0 0.0 0.0 0.0 13.4 19.4 2.0 0.0 0.0 0.0 0.0 0.0 0.0 0.0 0.0 0.0 1.1 8.0 9.4 5.8 0.6 0.5 0.7 0.2 0.4 0.2 0.1 0.0 0.0 0.0 0.4 0.5 1.0 0.9 0.7 0.7 0.3 0.0
0.0 0.0 0.0 0.0 0.0 0.0 0.0 0.0 0.0 0.0 5.1 21.0 5.7 0.7 0.3 0.0 0.0 0.0 0.0 0.0 0.1 0.9 4.7 9.4 7.1 1.6 2.6 2.6 2.2 0.7 0.3 0.5 0.8 0.2 0.0 0.5 0.0 0.0 0.0 0.1 0.3 0.1 0.0 0.1
0.0 0.0 0.0 0.0 0.0 0.0 0.0 5.7 0.0 0.0 0.0 12.4 18.1 0.5 0.3 0.0 0.0 0.0 0.0 0.0 0.2 3.2 6.5 7.6 1.6 0.1 1.9 6.5 2.8 0.1 0.0 0.0 0.1 0.2 0.0 0.0 0.0 0.1 0.0 0.9 0.3 0.1 0.0 0.9
0.0 0.0 0.0 0.0 0.0 0.0 0.6 9.3 0.0 0.0 0.0 24.4 34.8 18.2 3.4 1.2 1.3 2.2 2.7 2.3 2.2 7.4 12.9 8.9 4.8 3.8 6.8 11.3 4.2 0.2 0.0 0.0 0.0 0.0 0.0 1.1 0.3 0.2 1.1 0.6 0.2 1.3 1.2 0.8
0.0 0.0 0.0 0.0 0.0 0.0 0.2 0.0 0.0 0.0 4.4 21.3 57.8 31.3 12.2 1.8 2.8 6.4 6.6 7.3 6.2 17.9 11.7 9.5 5.0 6.2 12.1 13.7 1.2 0.2 0.2 0.9 1.7 1.8 1.2 2.7 2.5 2.3 2.7 0.6 1.6 1.3 1.6 1.6
0.0 0.0 0.0 0.0 0.0 0.2 0.0 0.0 0.0 0.0 1.5 59.3 40.8 22.9 12.8 4.9 3.1 5.1 9.2 11.6 22.3 17.2 19.1 8.8 6.6 14.2 18.0 7.6 2.2 0.8 1.7 3.1 2.6 3.5 2.8 2.0 1.8 2.6 2.6 2.0 1.7 2.6 4.3 3.2
0.0 0.0 3.1 17.5 4.3 0.0 0.0 0.0 14.7 31.1 44.4 41.9 27.4 13.7 10.2 6.7 9.6 11.0 15.7 22.3 25.5 29.6 16.8 11.9 19.6 12.7 6.8 4.3 5.1 4.7 4.7 4.5 4.7 8.5 6.8 4.2 5.5 4.7 5.0 5.1 5.2 4.8 5.1 5.4
2.8 19.3 21.2 3.3 0.0 1.8 10.9 44.6 45.7 37.3 32.5 17.2 13.0 8.2 9.4 6.9 16.3 17.7 20.3 27.6 25.9 25.8 14.9 13.4 15.6 12.6 6.4 4.9 6.7 6.8 6.4 6.2 5.9 5.8 6.4 8.0 9.9 10.2 8.0 6.7 9.2 7.2 7.6 7.5
3.5 2.8 8.7 9.5 33.7 43.8 46.1 40.2 21.2 14.4 11.8 12.8 9.4 6.4 7.5 12.5 13.1 21.3 25.7 23.4 21.2 17.8 8.9 15.9 12.4 7.5 6.3 8.2 7.8 7.8 7.5 7.1 6.8 6.6 8.4 7.1 7.1 7.5 7.4 8.1 8.3 7.5 7.1 6.4
5.2 28.0 39.2 36.0 37.2 41.0 30.4 17.1 12.0 11.3 8.9 10.1 8.7 9.9 11.2 14.4 19.7 27.5 24.2 22.7 15.9 10.2 12.9 9.8 7.8 5.9 6.2 7.4 9.1 9.4 9.4 7.5 7.8 8.2 6.0 6.2 6.1 6.0 5.3 5.5 4.3 4.0 3.9 4.4
25.6 37.9 34.0 23.5 20.4 12.0 10.0 7.4 7.0 7.3 10.1 11.7 12.5 13.4 15.6 14.2 20.8 20.0 21.4 14.3 9.7 15.7 11.4 8.3 6.9 7.2 6.7 6.3 7.0 7.3 7.5 7.8 7.6 9.8 9.5 7.4 6.1 5.0 4.6 4.5 4.9 4.3 3.9 3.9
40.7 30.7 20.7 12.1 7.8 6.3 7.6 7.5 7.6 9.3 12.7 16.0 17.1 17.2 16.6 19.2 22.5 16.0 10.1 14.5 13.1 11.0 9.1 8.5 8.6 8.8 8.4 8.0 7.3 6.4 6.1 6.8 7.1 7.0 7.5 8.2 5.8 4.1 3.4 4.3 4.1 3.7 3.8 3.0
34.3 24.5 11.1 5.2 4.3 4.4 3.5 5.3 6.3 7.6 10.1 12.0 16.8 16.6 17.5 16.1 14.6 13.8 10.1 10.1 9.2 10.0 10.5 10.3 9.4 9.1 8.3 8.7 8.3 7.7 7.6 7.7 8.0 7.9 8.5 7.7 7.7 8.1 7.7 5.6 4.7 4.2 4.4 3.4
32.7 12.0 6.7 6.4 4.0 3.8 4.0 4.3 4.5 4.9 7.2 9.3 11.4 15.8 10.8 11.7 12.4 9.0 7.3 9.3 10.3 9.5 7.8 7.4 7.4 6.9 6.9 6.9 6.2 5.8 5.2 5.0 5.4 6.5 7.6 8.7 9.3 8.9 7.2 7.2 8.6 7.7 7.2 6.6

GFSNW_prec_snow_291.txt.gz
Snowfall_Accumulation
0.0 0.0 0.0 0.0 0.0 0.0 0.0 0.0 11.6 0.0 0.0 5.4 10.4 11.0 4.6 0.4 0.2 0.0 0.7 0.7 0.6 0.7 0.6 1.4 0.0 0.3 0.0 1.2 2.4 1.1 1.1 2.1 1.7 0.5 0.0 0.0 0.0 0.0 0.0 3.4 1.3 2.9 4.0 2.8
0.0 0.0 0.0 0.0 0.0 0.0 0.0 4.4 2.7 0.0 0.0 10.4 6.6 1.1 0.0 2.1 1.9 0.6 2.2 1.8 2.3 1.6 0.7 3.3 0.0 2.5 1.9 0.4 1.3 1.8 2.1 3.8 2.6 1.5 0.4 0.0 0.8 0.1 0.1 1.4 2.4 3.0 3.9 0.6
0.0 0.0 0.0 0.0 0.0 0.0 0.0 4.5 10.6 0.0 0.0 0.0 3.2 4.3 1.9 1.0 1.1 2.1 2.1 2.4 0.0 2.1 0.8 0.0 3.9 2.7 3.4 2.1 2.0 1.5 5.0 4.4 2.1 1.4 2.5 3.5 3.2 0.3 0.7 2.8 6.3 0.7 0.6 0.3
0.0 0.0 0.0 0.0 0.0 0.0 0.0 5.5 6.8 0.0 9.1 1.9 3.6 4.8 4.4 2.3 2.6 0.3 1.8 2.3 1.8 3.1 3.8 1.7 1.8 0.7 0.4 0.0 2.0 2.3 3.8 3.3 0.5 1.0 1.6 5.6 3.1 0.9 0.9 3.6 0.7 2.2 0.1 0.3
0.0 0.0 0.0 0.0 0.0 0.0 0.0 5.3 3.9 1.6 3.2 0.9 1.9 2.5 2.6 1.2 1.6 2.2 2.4 2.1 1.4 1.3 3.1 3.1 2.6 1.8 0.0 1.8 2.0 4.2 3.5 5.1 5.1 4.5 1.9 3.4 2.8 0.4 0.7 0.5 0.1 0.0 0.0 0.0
0.0 0.0 0.0 0.0 0.0 0.0 0.0 2.9 1.6 9.7 3.2 0.7 1.6 2.0 1.3 2.4 1.7 0.6 0.5 1.2 1.3 0.7 0.5 0.0 0.0 0.3 0.0 0.9 0.7 0.7 6.2 8.9 11.1 7.7 1.6 2.2 3.1 0.7 0.2 0.0 0.0 0.0 0.3 0.0
0.0 0.0 0.0 0.0 0.0 0.0 0.0 0.0 4.2 14.6 7.0 0.9 0.6 0.0 0.5 1.1 0.4 1.8 0.0 0.0 1.1 0.0 0.0 0.0 0.0 0.0 0.2 0.1 0.8 0.4 2.8 7.1 10.8 14.2 7.0 10.1 1.4 0.4 0.3 0.3 0.7 0.9 0.2 0.0
0.0 0.0 0.0 0.0 0.0 0.0 0.0 0.0 3.1 15.2 9.7 0.4 0.2 0.4 0.6 0.0 0.0 0.4 0.3 0.0 0.0 0.0 0.0 1.4 2.9 2.4 1.8 1.1 0.5 0.8 1.1 3.5 8.9 9.8 5.7 2.6 2.1 1.2 1.2 1.1 1.5 1.0 0.7 0.1
0.0 0.0 0.0 0.0 0.0 0.0 0.0 0.0 0.0 13.5 13.6 2.1 0.3 0.3 0.0 1.4 1.1 0.3 0.0 0.0 0.0 0.0 2.1 3.7 5.8 2.5 0.9 1.5 0.7 0.1 0.6 2.6 8.9 9.0 8.9 4.6 2.5 2.0 1.5 0.4 1.4 1.1 0.6 0.2
0.0 0.0 0.0 0.0 0.0 0.0 0.0 0.0 0.0 3.6 16.5 0.5 0.0 1.0 0.5 0.0 0.5 1.9 0.0 0.2 0.0 0.0 2.3 5.2 4.5 2.3 1.8 1.0 2.5 1.5 1.1 3.2 7.5 5.8 8.1 3.1 2.2 1.1 1.5 3.1 3.0 2.2 1.8 0.6
0.0 0.0 0.0 0.0 0.0 0.0 0.0 0.0 0.0 0.0 17.8 1.6 0.0 0.0 0.1 0.2 0.2 3.5 0.2 1.7 0.2 2.4 5.0 5.5 1.4 3.4 1.5 2.1 2.0 4.6 4.3 4.8 4.2 4.9 9.8 4.6 1.5 1.0 3.3 3.9 2.0 2.0 1.8 1.2
0.0 0.0 0.0 0.0 0.0 0.0 0.0 0.0 0.0 0.0 5.9 1.6 0.0 0.0 0.0 0.0 0.0 0.2 2.3 1.8 0.3 3.2 4.5 2.8 5.0 4.8 3.5 2.3 2.8 1.2 5.6 6.5 7.4 5.2 6.0 5.2 4.1 4.8 5.1 3.0 1.7 1.3 1.0 0.8
0.0 0.0 0.0 0.0 0.0 0.0 0.0 0.0 0.0 0.0 11.8 4.4 1.5 0.4 0.0 0.0 0.0 0.0 3.9 0.1 0.1 0.2 0.3 4.9 6.2 5.8 3.2 2.6 1.2 0.4 2.6 2.1 2.1 2.1 1.2 0.4 2.7 1.7 1.3 1.3 2.4 1.8 0.9 0.5
0.0 0.0 0.0 0.0 0.0 0.0 0.0 0.0 0.0 0.0 13.4 19.5 2.0 0.0 0.0 0.0 0.0 0.0 0.0 0.0 0.0 0.1 1.5 9.0 10.0 6.0 0.7 0.7 1.0 0.2 0.5 0.2 0.1 0.0 0.0 0.1 0.5 0.5 1.0 0.9 0.7 0.7 0.3 0.9
0.0 0.0 0.0 0.0 0.0 0.0 0.0 0.0 0.0 0.0 5.1 21.1 5.7 0.7 0.3 0.0 0.0 0.0 0.0 0.0 0.1 1.1 6.0 10.2 7.5 2.0 3.0 3.1 2.4 1.1 0.7 0.9 1.0 0.2 0.0 0.5 0.0 0.0 0.0 0.1 0.3 0.1 0.0 1.0
0.0 0.0 0.0 0.0 0.0 0.0 0.0 5.7 0.0 0.0 0.0 12.9 18.1 0.5 0.3 0.0 0.0 0.0 0.0 0.0 0.2 3.2 7.4 8.5 2.7 1.2 2.9 7.1 3.3 0.4 0.1 0.0 0.4 0.5 0.0 0.2 0.0 0.1 0.0 0.9 0.3 0.1 0.3 1.6
0.0 0.0 0.0 0.0 0.0 0.0 0.6 9.3 0.0 0.0 0.0 25.0 34.8 18.2 3.4 1.2 1.3 2.2 2.7 2.3 2.4 8.1 14.6 10.5 6.2 5.2 8.3 12.0 4.7 0.3 0.0 0.0 0.0 0.0 0.0 1.1 0.3 0.2 1.1 0.6 0.2 1.4 1.4 1.0
0.0 0.0 0.0 0.0 0.0 0.0 0.2 0.0 0.0 0.0 4.4 21.3 57.8 31.3 12.2 1.8 2.8 6.4 6.6 7.3 6.4 19.1 13.3 10.5 5.4 6.2 12.1 14.0 1.2 0.2 0.2 0.9 1.7 1.8 1.2 2.7 2.5 2.3 2.8 0.6 1.6 1.4 1.6 1.7
0.0 0.0 0.0 0.0 0.0 0.2 0.0 0.0 0.0 0.0 1.5 59.4 41.0 23.2 12.8 4.9 3.1 5.1 9.2 11.6 23.6 17.2 19.1 8.8 6.6 14.2 18.0 7.8 2.4 0.8 1.7 3.3 2.9 3.5 2.8 2.0 1.8 2.6 2.6 2.0 1.7 2.6 4.4 3.3
0.0 0.0 3.1 17.5 4.3 0.0 0.0 0.0 14.8 31.1 44.4 41.9 27.4 13.7 10.2 6.7 9.6 11.0 15.7 22.3 26.5 29.9 17.2 11.9 19.6 12.8 6.9 4.6 5.5 5.1 4.9 4.7 4.8 8.7 7.0 4.2 5.5 4.7 5.0 5.3 5.5 5.0 5.4 5.7
2.8 19.3 21.2 3.3 0.0 1.8 10.9 44.6 45.7 37.3 32.5 17.2 13.0 8.2 9.4 6.9 16.3 17.7 20.3 28.3 26.3 26.0 15.0 13.4 15.6 12.6 6.4 5.0 6.8 6.8 6.4 6.4 6.2 6.2 6.8 8.5 10.4 10.6 8.3 6.9 9.5 7.5 7.9 7.9
3.5 2.8 8.7 9.5 33.7 43.8 46.1 40.2 21.2 14.4 11.8 12.8 9.4 6.4 7.5 12.5 13.1 21.7 26.1 23.6 21.2 17.9 8.9 15.9 12.4 7.5 6.3 8.3 7.9 7.9 7.7 7.4 7.0 6.9 8.7 7.4 7.6 8.0 7.9 8.6 8.8 8.0 7.7 7.0
5.2 28.0 39.2 36.0 37.2 41.0 30.4 17.1 12.0 11.3 8.9 10.2 8.7 9.9 11.2 14.4 19.9 27.8 24.2 22.7 15.9 10.2 12.9 9.8 7.8 5.9 6.2 7.5 9.3 9.6 9.7 7.9 8.1 8.5 6.4 6.6 6.7 6.5 5.8 6.1 5.0 4.7 4.6 5.3
25.6 37.9 34.0 23.5 20.4 12.0 10.0 7.4 7.0 7.3 10.1 11.7 12.5 13.4 15.6 14.2 20.9 20.1 21.5 14.3 9.7 15.7 11.4 8.3 6.9 7.3 6.9 6.5 7.3 7.5 7.7 8.0 7.9 10.2 10.1 8.0 6.5 5.6 5.1 5.1 5.8 5.1 4.7 5.0
40.7 30.7 20.7 12.1 8.1 6.5 7.6 7.5 7.6 9.3 12.7 16.0 17.1 17.2 16.8 19.2 22.5 16.0 10.1 14.5 13.1 11.0 9.1 8.6 8.8 9.0 8.6 8.2 7.5 6.7 6.3 7.0 7.2 7.2 7.7 8.7 6.3 4.6 4.0 5.1 4.9 4.6 4.6 3.8
34.3 24.5 11.1 5.2 4.3 4.4 3.5 5.3 6.3 7.6 10.1 12.1 16.9 16.7 17.5 16.1 14.6 13.8 10.2 10.2 9.3 10.1 10.6 10.5 9.6 9.3 8.6 8.9 8.5 7.9 7.8 7.8 8.1 8.0 8.7 8.0 8.0 8.5 8.3 6.3 5.4 5.0 5.2 4.1
32.7 12.0 6.7 6.4 4.0 3.8 4.0 4.3 4.5 4.9 7.2 9.3 11.4 15.8 10.8 11.8 12.4 9.1 7.4 9.4 10.6 9.7 8.0 7.6 7.7 7.1 7.2 7.1 6.3 5.9 5.4 5.1 5.5 6.5 7.7 8.7 9.5 9.2 7.5 7.6 9.1 8.2 7.7 7.2

GFSNW_prec_snow_294.txt.gz
Snowfall_Accumulation
0.0 0.0 0.0 0.0 0.0 0.0 0.0 0.0 11.6 0.0 0.0 5.4 10.4 11.0 4.6 0.4 0.2 0.0 0.7 0.7 0.6 0.7 0.6 1.5 0.0 0.3 0.0 1.2 2.4 1.1 1.1 3.3 2.6 0.7 0.0 0.0 0.0 0.0 0.0 3.4 1.3 2.9 4.0 2.8
0.0 0.0 0.0 0.0 0.0 0.0 0.0 4.4 2.7 0.0 0.0 10.4 6.6 1.1 0.0 2.1 1.9 0.6 2.2 1.8 2.3 1.6 0.7 3.4 0.0 2.5 1.9 0.4 1.3 1.8 2.1 4.6 3.2 2.2 0.4 0.0 0.8 0.1 0.1 1.4 2.4 3.0 3.9 0.6
0.0 0.0 0.0 0.0 0.0 0.0 0.0 4.5 10.6 0.0 0.0 0.0 3.2 4.3 1.9 1.0 1.1 2.1 2.1 2.4 0.0 2.1 0.8 0.0 3.9 2.7 3.4 2.1 2.0 1.5 5.8 4.8 2.4 2.0 3.3 4.4 4.0 0.3 0.7 2.8 6.3 0.7 0.6 0.3
0.0 0.0 0.0 0.0 0.0 0.0 0.0 5.5 6.8 0.0 9.1 1.9 3.6 4.8 4.4 2.4 2.9 0.4 1.8 2.3 1.8 3.1 3.9 1.7 1.8 0.7 0.4 0.0 2.0 2.4 3.8 3.3 0.5 1.0 1.6 5.8 3.4 1.5 1.0 3.6 0.7 2.2 0.1 0.3
0.0 0.0 0.0 0.0 0.0 0.0 0.0 5.4 4.2 2.1 3.3 0.9 1.9 2.5 2.6 1.2 1.6 2.7 2.4 2.1 1.4 1.3 3.1 3.1 2.6 1.8 0.0 1.8 2.0 4.2 3.5 5.1 5.1 4.5 1.9 3.4 2.8 0.4 0.7 0.6 0.1 0.0 0.0 0.0
0.0 0.0 0.0 0.0 0.0 0.0 0.0 2.9 1.6 10.6 3.2 0.7 1.6 2.0 1.3 2.4 1.7 0.6 0.5 1.2 1.3 0.7 0.5 0.0 0.0 0.3 0.0 0.9 0.9 0.9 6.2 8.9 11.6 7.7 1.6 2.2 3.1 1.2 0.3 0.3 0.8 0.7 0.7 0.1
0.0 0.0 0.0 0.0 0.0 0.0 0.0 0.0 4.2 15.5 7.2 0.9 0.6 0.0 0.5 1.1 0.4 2.0 0.0 0.0 1.1 0.0 0.0 0.0 0.0 0.2 1.3 1.6 2.1 1.3 3.1 7.5 11.4 14.2 10.0 13.0 3.9 1.8 1.2 1.3 1.8 2.0 1.0 0.2
0.0 0.0 0.0 0.0 0.0 0.0 0.0 0.0 3.1 16.0 10.1 0.4 0.2 0.4 0.6 0.0 0.0 0.4 0.3 0.0 0.0 0.0 0.0 1.4 2.9 2.5 1.8 1.1 0.9 1.8 2.3 4.3 9.4 11.1 9.0 6.5 4.7 3.6 4.1 3.7 3.3 2.3 1.7 0.6
0.0 0.0 0.0 0.0 0.0 0.0 0.0 0.0 0.0 14.0 14.1 2.1 0.3 0.3 0.0 1.4 1.1 0.3 0.0 0.0 0.0 0.0 2.1 3.7 5.8 2.5 0.9 1.5 0.7 0.1 0.6 2.6 9.6 10.0 10.3 6.5 4.1 4.3 4.6 2.2 2.9 2.6 1.8 1.1
0.0 0.0 0.0 0.0 0.0 0.0 0.0 0.0 0.0 3.6 17.1 0.5 0.0 1.0 0.5 0.0 0.5 2.0 0.0 0.2 0.0 0.0 2.3 5.2 4.5 2.3 1.8 1.0 2.6 1.6 1.1 3.2 7.8 6.8 9.3 4.0 3.4 2.3 4.1 5.5 4.7 3.1 3.1 1.7
0.0 0.0 0.0 0.0 0.0 0.0 0.0 0.0 0.0 0.0 18.1 1.6 0.0 0.0 0.1 0.2 0.2 3.6 0.2 1.7 0.2 2.4 5.0 5.5 1.4 3.4 1.5 2.1 2.1 4.9 4.3 4.8 4.4 5.4 10.4 5.1 1.8 1.3 4.7 5.5 2.8 2.8 2.7 2.5
0.0 0.0 0.0 0.0 0.0 0.0 0.0 0.0 0.0 0.0 6.1 1.6 0.0 0.0 0.0 0.0 0.0 0.3 2.3 1.8 0.6 3.6 4.7 3.0 5.0 4.8 3.5 2.3 2.8 1.2 5.6 6.5 7.7 5.6 6.6 5.9 4.7 5.5 5.6 3.0 1.7 1.3 1.3 1.6
0.0 0.0 0.0 0.0 0.0 0.0 0.0 0.0 0.0 0.0 11.9 4.4 1.5 0.4 0.0 0.0 0.0 0.0 4.0 0.1 0.2 0.3 0.8 5.8 6.5 5.8 3.2 2.6 1.2 0.4 2.6 2.1 2.1 2.1 1.4 0.4 3.1 2.0 1.3 1.3 2.4 1.8 0.9 0.7
0.0 0.0 0.0 0.0 0.0 0.0 0.0 0.0 0.0 0.0 13.4 19.6 2.0 0.0 0.0 0.0 0.0 0.0 0.0 0.0 0.1 0.3 1.8 9.5 10.5 6.4 1.1 0.9 1.0 0.2 0.5 0.2 0.1 0.0 0.0 0.1 0.7 0.5 1.0 0.9 0.7 0.7 0.3 0.9
0.0 0.0 0.0 0.0 0.0 0.0 0.0 0.0 0.0 0.0 5.1 21.2 5.7 0.7 0.3 0.0 0.0 0.0 0.0 0.0 0.1 1.1 6.2 10.5 8.1 2.7 3.6 3.3 2.4 1.1 0.7 1.1 1.1 0.2 0.0 0.5 0.0 0.0 0.0 0.1 0.3 0.1 0.0 1.1
0.0 0.0 0.0 0.0 0.0 0.0 0.0 5.7 0.0 0.0 0.0 13.0 18.1 0.5 0.3 0.0 0.0 0.0 0.0 0.0 0.3 3.5 7.8 9.3 3.1 1.5 3.5 7.3 3.3 0.4 0.1 0.0 0.5 0.6 0.0 0.2 0.0 0.1 0.0 0.9 0.3 0.1 0.4 1.6
0.0 0.0 0.0 0.0 0.0 0.0 0.6 9.3 0.0 0.0 0.0 25.2 34.8 18.2 3.4 1.2 1.3 2.2 2.7 2.3 2.4 8.5 15.0 10.6 6.3 5.4 8.5 12.1 4.7 0.3 0.0 0.0 0.0 0.0 0.0 1.1 0.3 0.2 1.1 0.6 0.2 1.4 1.4 1.1
0.0 0.0 0.0 0.0 0.0 0.0 0.2 0.0 0.0 0.0 4.4 21.3 57.8 31.3 12.2 1.8 2.8 6.4 6.6 7.3 6.4 19.1 13.4 10.5 5.4 6.2 12.1 14.0 1.2 0.2 0.2 0.9 1.7 1.8 1.2 2.7 2.5 2.3 2.8 0.6 1.6 1.4 1.6 1.7
0.0 0.0 0.0 0.0 0.0 0.2 0.0 0.0 0.0 0.0 1.5 59.4 41.0 23.2 12.8 4.9 3.1 5.1 9.2 11.6 23.6 17.2 19.1 8.8 6.6 14.2 18.0 7.9 2.4 0.8 1.8 3.5 3.0 3.5 2.8 2.0 1.8 2.6 2.6 2.0 1.7 2.6 4.4 3.4
0.0 0.0 3.1 17.5 4.3 0.0 0.0 0.0 14.8 31.1 44.4 41.9 27.4 13.7 10.2 6.7 9.6 11.0 15.7 22.4 26.6 29.9 17.3 11.9 19.6 12.8 6.9 4.7 5.6 5.2 5.0 4.8 4.9 8.7 7.0 4.2 5.5 4.7 5.0 5.4 5.6 5.1 5.5 5.8
2.8 19.3 21.2 3.3 0.0 1.8 10.9 44.6 45.7 37.3 32.5 17.2 13.0 8.2 9.4 6.9 16.3 17.7 20.3 28.3 26.3 26.0 15.0 13.4 15.6 12.6 6.5 5.0 6.8 6.8 6.5 6.5 6.3 6.3 7.0 8.7 10.6 10.7 8.4 6.9 9.6 7.6 8.0 8.0
3.5 2.8 8.7 9.5 33.7 43.8 46.1 40.2 21.2 14.4 11.8 12.8 9.4 6.4 7.5 12.5 13.1 21.8 26.1 23.7 21.2 18.0 8.9 15.9 12.4 7.5 6.3 8.3 7.9 7.9 7.7 7.4 7.1 7.0 8.8 7.5 7.6 8.2 8.1 8.7 8.9 8.1 7.8 7.1
5.2 28.0 39.2 36.0 37.2 41.0 30.4 17.1 12.0 11.3 8.9 10.2 8.7 9.9 11.2 14.4 20.0 27.9 24.3 22.8 15.9 10.2 12.9 9.8 7.9 5.9 6.2 7.6 9.4 9.7 9.7 7.9 8.1 8.5 6.4 6.6 6.7 6.5 5.9 6.1 5.0 4.9 4.8 5.5
25.6 37.9 34.0 23.5 20.4 12.0 10.0 7.4 7.0 7.3 10.1 11.7 12.5 13.4 15.6 14.2 21.0 20.2 21.5 14.4 9.8 15.8 11.4 8.4 7.0 7.4 7.0 6.6 7.4 7.5 7.7 8.0 7.9 10.2 10.1 8.0 6.5 5.7 5.1 5.3 6.0 5.3 4.9 5.2
40.7 30.7 20.7 12.1 8.1 6.6 7.6 7.5 7.6 9.3 12.7 16.0 17.1 17.3 16.8 19.2 22.6 16.1 10.2 14.7 13.3 11.1 9.3 8.7 8.9 9.2 8.8 8.3 7.6 6.7 6.3 7.0 7.2 7.2 7.7 8.7 6.3 4.6 4.0 5.2 5.1 4.7 4.8 4.0
34.3 24.5 11.1 5.2 4.3 4.4 3.5 5.3 6.3 7.6 10.1 12.2 16.9 16.7 17.5 16.2 14.7 13.9 10.3 10.4 9.4 10.3 10.9 10.7 9.8 9.5 8.7 9.1 8.6 8.0 7.9 7.9 8.2 8.1 8.7 8.0 8.0 8.6 8.4 6.4 5.5 5.1 5.4 4.3
32.7 12.0 6.7 6.4 4.0 3.8 4.0 4.3 4.5 4.9 7.2 9.3 11.4 15.8 10.9 11.9 12.5 9.2 7.6 9.6 10.8 10.0 8.3 7.8 8.0 7.4 7.4 7.2 6.4 6.1 5.5 5.2 5.5 6.6 7.7 8.7 9.5 9.2 7.5 7.6 9.2 8.3 7.9 7.4